| time (UTC) | temp F | wind direction | speed MPH | gust MPH | rain 1hr in | rain 24hr in | rain mn in | humidity % | barometer mb |
| 20260902130557 | 80 | 240 | 0.0 | 3.0 | 0.00 | 0.00 | 0.00 | 74 | 1019.0 |
| 20260902130458 | 80 | 276 | 1.0 | 3.0 | 0.00 | 0.00 | 0.00 | 74 | 1019.0 |
| 20260902130258 | 80 | 196 | 0.0 | 3.0 | 0.00 | 0.00 | 0.00 | 74 | 1018.9 |
| 20260902130159 | 80 | 193 | 0.0 | 3.0 | 0.00 | 0.00 | 0.00 | 74 | 1018.8 |
| 20260902130057 | 80 | 184 | 1.0 | 3.0 | 0.00 | 0.00 | 0.00 | 75 | 1018.9 |
| 20260902130000 | 80 | 187 | 1.0 | 3.0 | 0.00 | 0.00 | 0.00 | 75 | 1018.9 |
| 20260902125859 | 80 | 234 | 0.0 | 3.0 | 0.00 | 0.00 | 0.00 | 75 | 1018.8 |
| 20260902125757 | 79 | 187 | 0.0 | 3.0 | 0.00 | 0.00 | 0.00 | 75 | 1018.8 |
| 20260902125658 | 79 | 264 | 0.0 | 3.0 | 0.00 | 0.00 | 0.00 | 75 | 1018.8 |
| 20260902125558 | 79 | 284 | 2.0 | 5.0 | 0.00 | 0.00 | 0.00 | 75 | 1018.9 |
| 20260902125457 | 79 | 228 | 0.0 | 5.0 | 0.00 | 0.00 | 0.00 | 75 | 1018.8 |
| 20260902125257 | 79 | 360 | 0.0 | 5.0 | 0.00 | 0.00 | 0.00 | 75 | 1018.7 |
| 20260902125200 | 79 | 360 | 1.0 | 5.0 | 0.00 | 0.00 | 0.00 | 75 | 1018.8 |
| 20260902125058 | 79 | 108 | 0.0 | 5.0 | 0.00 | 0.00 | 0.00 | 75 | 1018.8 |
| 20260902124957 | 79 | 26 | 1.0 | 5.0 | 0.00 | 0.00 | 0.00 | 75 | 1018.8 |
| 20260902124758 | 79 | 180 | 3.0 | 5.0 | 0.00 | 0.00 | 0.00 | 76 | 1018.8 |
| 20260902124700 | 79 | 193 | 0.0 | 2.0 | 0.00 | 0.00 | 0.00 | 76 | 1018.9 |
| 20260902124557 | 79 | 184 | 0.0 | 2.0 | 0.00 | 0.00 | 0.00 | 76 | 1018.8 |
| 20260902124458 | 79 | 184 | 0.0 | 2.0 | 0.00 | 0.00 | 0.00 | 76 | 1018.9 |
| 20260902124359 | 78 | 167 | 0.0 | 2.0 | 0.00 | 0.00 | 0.00 | 76 | 1018.9 |
| 20260902124258 | 78 | 165 | 0.0 | 2.0 | 0.00 | 0.00 | 0.00 | 76 | 1018.9 |
| 20260902124158 | 78 | 177 | 0.0 | 2.0 | 0.00 | 0.00 | 0.00 | 76 | 1018.9 |
| 20260902124057 | 78 | 176 | 0.0 | 2.0 | 0.00 | 0.00 | 0.00 | 77 | 1018.9 |
| 20260902124000 | 78 | 185 | 0.0 | 0.0 | 0.00 | 0.00 | 0.00 | 77 | 1018.9 |
| 20260902123857 | 78 | 170 | 0.0 | 0.0 | 0.00 | 0.00 | 0.00 | 77 | 1018.9 |
| 20260902123758 | 78 | 188 | 0.0 | 0.0 | 0.00 | 0.00 | 0.00 | 77 | 1018.8 |
| 20260902123658 | 78 | 188 | 0.0 | 0.0 | 0.00 | 0.00 | 0.00 | 77 | 1018.8 |
| 20260902123557 | 78 | 188 | 0.0 | 0.0 | 0.00 | 0.00 | 0.00 | 77 | 1018.8 |
| 20260902123457 | 78 | 187 | 0.0 | 0.0 | 0.00 | 0.00 | 0.00 | 78 | 1018.9 |
| 20260902123358 | 78 | 177 | 0.0 | 0.0 | 0.00 | 0.00 | 0.00 | 78 | 1018.8 |
| 20260902123158 | 77 | 178 | 0.0 | 0.0 | 0.00 | 0.00 | 0.00 | 78 | 1018.8 |
| 20260902123059 | 77 | 178 | 0.0 | 0.0 | 0.00 | 0.00 | 0.00 | 78 | 1018.8 |
| 20260902122957 | 77 | 190 | 0.0 | 0.0 | 0.00 | 0.00 | 0.00 | 78 | 1018.8 |
| 20260902122657 | 77 | 250 | 0.0 | 0.0 | 0.00 | 0.00 | 0.00 | 79 | 1018.8 |
| 20260902122557 | 77 | 213 | 0.0 | 0.0 | 0.00 | 0.00 | 0.00 | 79 | 1018.9 |
| 20260902122257 | 77 | 250 | 0.0 | 0.0 | 0.00 | 0.00 | 0.00 | 79 | 1018.8 |
| 20260902122157 | 77 | 248 | 0.0 | 0.0 | 0.00 | 0.00 | 0.00 | 79 | 1018.9 |
| 20260902122059 | 77 | 248 | 0.0 | 0.0 | 0.00 | 0.00 | 0.00 | 79 | 1018.8 |
| 20260902121959 | 77 | 237 | 0.0 | 0.0 | 0.00 | 0.00 | 0.00 | 79 | 1018.9 |
| 20260902121859 | 76 | 237 | 0.0 | 0.0 | 0.00 | 0.00 | 0.00 | 79 | 1018.9 |
| 20260902121757 | 76 | 239 | 0.0 | 0.0 | 0.00 | 0.00 | 0.00 | 80 | 1018.9 |
| 20260902121658 | 76 | 227 | 0.0 | 0.0 | 0.00 | 0.00 | 0.00 | 80 | 1018.8 |
| 20260902121558 | 76 | 227 | 0.0 | 0.0 | 0.00 | 0.00 | 0.00 | 80 | 1018.8 |
| 20260902121457 | 76 | 232 | 0.0 | 0.0 | 0.00 | 0.00 | 0.00 | 80 | 1018.8 |
| 20260902121358 | 76 | 225 | 0.0 | 0.0 | 0.00 | 0.00 | 0.00 | 80 | 1018.8 |
| 20260902121257 | 76 | 234 | 0.0 | 0.0 | 0.00 | 0.00 | 0.00 | 80 | 1018.7 |
| 20260902121157 | 76 | 277 | 0.0 | 0.0 | 0.00 | 0.00 | 0.00 | 80 | 1018.7 |
| 20260902121058 | 76 | 277 | 0.0 | 0.0 | 0.00 | 0.00 | 0.00 | 80 | 1018.7 |
| 20260902120957 | 76 | 265 | 0.0 | 0.0 | 0.00 | 0.00 | 0.00 | 80 | 1018.7 |
| 20260902120858 | 76 | 265 | 0.0 | 0.0 | 0.00 | 0.00 | 0.00 | 80 | 1018.7 |
| 20260902120757 | 76 | 265 | 0.0 | 0.0 | 0.00 | 0.00 | 0.00 | 80 | 1018.7 |
| 20260902120658 | 76 | 284 | 0.0 | 0.0 | 0.00 | 0.00 | 0.00 | 80 | 1018.7 |
| 20260902120558 | 76 | 286 | 0.0 | 0.0 | 0.00 | 0.00 | 0.00 | 80 | 1018.8 |
| 20260902120458 | 76 | 288 | 0.0 | 0.0 | 0.00 | 0.00 | 0.00 | 80 | 1018.7 |
| 20260902120359 | 76 | 249 | 0.0 | 0.0 | 0.00 | 0.00 | 0.00 | 81 | 1018.7 |
| 20260902120158 | 75 | 249 | 0.0 | 0.0 | 0.00 | 0.00 | 0.00 | 81 | 1018.7 |
| 20260902120058 | 75 | 249 | 0.0 | 0.0 | 0.00 | 0.00 | 0.00 | 80 | 1018.7 |
| 20260902115757 | 75 | 249 | 0.0 | 0.0 | 0.00 | 0.00 | 0.00 | 81 | 1018.7 |
| 20260902115658 | 75 | 249 | 0.0 | 0.0 | 0.00 | 0.00 | 0.00 | 81 | 1018.7 |
| 20260902115557 | 75 | 249 | 0.0 | 0.0 | 0.00 | 0.00 | 0.00 | 81 | 1018.6 |
| 20260902115458 | 75 | 249 | 0.0 | 0.0 | 0.00 | 0.00 | 0.00 | 81 | 1018.6 |
| 20260902115358 | 75 | 249 | 0.0 | 0.0 | 0.00 | 0.00 | 0.00 | 81 | 1018.6 |
| 20260902115258 | 75 | 249 | 0.0 | 0.0 | 0.00 | 0.00 | 0.00 | 81 | 1018.6 |
| 20260902115200 | 75 | 248 | 0.0 | 0.0 | 0.00 | 0.00 | 0.00 | 81 | 1018.6 |
| 20260902115057 | 75 | 248 | 0.0 | 0.0 | 0.00 | 0.00 | 0.00 | 81 | 1018.5 |
| 20260902114957 | 75 | 250 | 0.0 | 0.0 | 0.00 | 0.00 | 0.00 | 81 | 1018.6 |
| 20260902114859 | 75 | 250 | 0.0 | 0.0 | 0.00 | 0.00 | 0.00 | 81 | 1018.6 |
| 20260902114757 | 75 | 240 | 0.0 | 0.0 | 0.00 | 0.00 | 0.00 | 81 | 1018.6 |
| 20260902114658 | 75 | 240 | 0.0 | 0.0 | 0.00 | 0.00 | 0.00 | 81 | 1018.6 |
| 20260902114557 | 75 | 240 | 0.0 | 0.0 | 0.00 | 0.00 | 0.00 | 81 | 1018.6 |
| 20260902114457 | 75 | 240 | 0.0 | 0.0 | 0.00 | 0.00 | 0.00 | 81 | 1018.5 |
| 20260902114358 | 75 | 258 | 0.0 | 0.0 | 0.00 | 0.00 | 0.00 | 81 | 1018.6 |
| 20260902114257 | 75 | 255 | 0.0 | 0.0 | 0.00 | 0.00 | 0.00 | 81 | 1018.5 |
| 20260902114157 | 75 | 255 | 0.0 | 0.0 | 0.00 | 0.00 | 0.00 | 81 | 1018.5 |
| 20260902113957 | 75 | 255 | 0.0 | 0.0 | 0.00 | 0.00 | 0.00 | 81 | 1018.5 |
| 20260902113857 | 75 | 255 | 0.0 | 0.0 | 0.00 | 0.00 | 0.00 | 81 | 1018.6 |
| 20260902113658 | 75 | 255 | 0.0 | 0.0 | 0.00 | 0.00 | 0.00 | 81 | 1018.6 |
| 20260902113458 | 75 | 255 | 0.0 | 0.0 | 0.00 | 0.00 | 0.00 | 81 | 1018.5 |
| 20260902113358 | 75 | 275 | 0.0 | 0.0 | 0.00 | 0.00 | 0.00 | 81 | 1018.5 |
| 20260902113257 | 75 | 275 | 0.0 | 0.0 | 0.00 | 0.00 | 0.00 | 81 | 1018.5 |
| 20260902112958 | 75 | 277 | 0.0 | 0.0 | 0.00 | 0.00 | 0.00 | 81 | 1018.4 |
| 20260902112857 | 75 | 277 | 0.0 | 0.0 | 0.00 | 0.00 | 0.00 | 81 | 1018.4 |
| 20260902112757 | 75 | 277 | 0.0 | 0.0 | 0.00 | 0.00 | 0.00 | 81 | 1018.4 |
| 20260902112657 | 75 | 277 | 0.0 | 0.0 | 0.00 | 0.00 | 0.00 | 81 | 1018.4 |
| 20260902112558 | 75 | 277 | 0.0 | 0.0 | 0.00 | 0.00 | 0.00 | 81 | 1018.3 |
| 20260902112457 | 75 | 277 | 0.0 | 0.0 | 0.00 | 0.00 | 0.00 | 81 | 1018.4 |
| 20260902112358 | 75 | 277 | 0.0 | 0.0 | 0.00 | 0.00 | 0.00 | 81 | 1018.3 |
| 20260902112257 | 75 | 277 | 0.0 | 0.0 | 0.00 | 0.00 | 0.00 | 81 | 1018.3 |
| 20260902112159 | 75 | 277 | 0.0 | 0.0 | 0.00 | 0.00 | 0.00 | 81 | 1018.3 |
| 20260902112058 | 75 | 277 | 0.0 | 0.0 | 0.00 | 0.00 | 0.00 | 81 | 1018.2 |
| 20260902111957 | 75 | 277 | 0.0 | 0.0 | 0.00 | 0.00 | 0.00 | 81 | 1018.3 |
| 20260902111858 | 75 | 277 | 0.0 | 0.0 | 0.00 | 0.00 | 0.00 | 81 | 1018.3 |
| 20260902111758 | 75 | 277 | 0.0 | 0.0 | 0.00 | 0.00 | 0.00 | 81 | 1018.3 |
| 20260902111658 | 75 | 277 | 0.0 | 0.0 | 0.00 | 0.00 | 0.00 | 81 | 1018.2 |
| 20260902111558 | 75 | 277 | 0.0 | 0.0 | 0.00 | 0.00 | 0.00 | 81 | 1018.2 |
| 20260902111458 | 75 | 277 | 0.0 | 0.0 | 0.00 | 0.00 | 0.00 | 81 | 1018.2 |
| 20260902111357 | 75 | 277 | 0.0 | 0.0 | 0.00 | 0.00 | 0.00 | 81 | 1018.3 |
| 20260902111258 | 75 | 277 | 0.0 | 0.0 | 0.00 | 0.00 | 0.00 | 81 | 1018.3 |
| 20260902111157 | 75 | 277 | 0.0 | 0.0 | 0.00 | 0.00 | 0.00 | 81 | 1018.3 |
| 20260902111057 | 75 | 277 | 0.0 | 0.0 | 0.00 | 0.00 | 0.00 | 81 | 1018.3 |
| 20260902110957 | 75 | 277 | 0.0 | 0.0 | 0.00 | 0.00 | 0.00 | 81 | 1018.3 |
| 20260902110858 | 75 | 277 | 0.0 | 0.0 | 0.00 | 0.00 | 0.00 | 81 | 1018.3 |
| 20260902110758 | 75 | 279 | 0.0 | 0.0 | 0.00 | 0.00 | 0.00 | 81 | 1018.3 |
| 20260902110657 | 75 | 277 | 0.0 | 0.0 | 0.00 | 0.00 | 0.00 | 81 | 1018.3 |
| 20260902110600 | 75 | 280 | 0.0 | 0.0 | 0.00 | 0.00 | 0.00 | 81 | 1018.3 |
| 20260902110458 | 75 | 280 | 0.0 | 0.0 | 0.00 | 0.00 | 0.00 | 81 | 1018.4 |
| 20260902110357 | 75 | 280 | 0.0 | 0.0 | 0.00 | 0.00 | 0.00 | 81 | 1018.3 |
| 20260902110159 | 75 | 280 | 0.0 | 0.0 | 0.00 | 0.00 | 0.00 | 81 | 1018.3 |
| 20260902110058 | 75 | 286 | 0.0 | 0.0 | 0.00 | 0.00 | 0.00 | 81 | 1018.2 |
| 20260902105958 | 75 | 286 | 0.0 | 0.0 | 0.00 | 0.00 | 0.00 | 81 | 1018.2 |
| 20260902105857 | 75 | 286 | 0.0 | 0.0 | 0.00 | 0.00 | 0.00 | 81 | 1018.3 |
| 20260902105757 | 75 | 286 | 0.0 | 0.0 | 0.00 | 0.00 | 0.00 | 81 | 1018.2 |
| 20260902105658 | 75 | 286 | 0.0 | 0.0 | 0.00 | 0.00 | 0.00 | 81 | 1018.3 |
| 20260902105557 | 75 | 286 | 0.0 | 0.0 | 0.00 | 0.00 | 0.00 | 81 | 1018.3 |
| 20260902105457 | 75 | 315 | 0.0 | 0.0 | 0.00 | 0.00 | 0.00 | 81 | 1018.3 |
| 20260902105358 | 75 | 315 | 0.0 | 0.0 | 0.00 | 0.00 | 0.00 | 81 | 1018.3 |
| 20260902105257 | 75 | 315 | 0.0 | 0.0 | 0.00 | 0.00 | 0.00 | 81 | 1018.3 |
| 20260902105158 | 75 | 315 | 0.0 | 0.0 | 0.00 | 0.00 | 0.00 | 81 | 1018.4 |
| 20260902105057 | 75 | 315 | 0.0 | 0.0 | 0.00 | 0.00 | 0.00 | 81 | 1018.4 |
| 20260902104857 | 75 | 315 | 0.0 | 0.0 | 0.00 | 0.00 | 0.00 | 81 | 1018.3 |
| 20260902104557 | 75 | 315 | 0.0 | 0.0 | 0.00 | 0.00 | 0.00 | 81 | 1018.3 |
| 20260902104459 | 75 | 315 | 0.0 | 0.0 | 0.00 | 0.00 | 0.00 | 81 | 1018.3 |
| 20260902104359 | 75 | 315 | 0.0 | 0.0 | 0.00 | 0.00 | 0.00 | 81 | 1018.3 |
| 20260902104257 | 75 | 315 | 0.0 | 0.0 | 0.00 | 0.00 | 0.00 | 81 | 1018.3 |
| 20260902104157 | 75 | 315 | 0.0 | 0.0 | 0.00 | 0.00 | 0.00 | 81 | 1018.3 |
| 20260902104059 | 75 | 315 | 0.0 | 0.0 | 0.00 | 0.00 | 0.00 | 81 | 1018.3 |
| 20260902103957 | 75 | 315 | 0.0 | 0.0 | 0.00 | 0.00 | 0.00 | 81 | 1018.2 |
| 20260902103757 | 75 | 315 | 0.0 | 0.0 | 0.00 | 0.00 | 0.00 | 81 | 1018.3 |
| 20260902103658 | 75 | 315 | 0.0 | 0.0 | 0.00 | 0.00 | 0.00 | 81 | 1018.3 |
| 20260902103558 | 75 | 315 | 0.0 | 0.0 | 0.00 | 0.00 | 0.00 | 81 | 1018.3 |
| 20260902103302 | 75 | 315 | 0.0 | 0.0 | 0.00 | 0.00 | 0.00 | 81 | 1018.2 |
| 20260902103157 | 75 | 315 | 0.0 | 0.0 | 0.00 | 0.00 | 0.00 | 81 | 1018.2 |
| 20260902103058 | 75 | 315 | 0.0 | 0.0 | 0.00 | 0.00 | 0.00 | 81 | 1018.2 |
| 20260902102958 | 75 | 315 | 0.0 | 0.0 | 0.00 | 0.00 | 0.00 | 81 | 1018.1 |
| 20260902102856 | 75 | 315 | 0.0 | 0.0 | 0.00 | 0.00 | 0.00 | 81 | 1018.1 |
| 20260902102757 | 75 | 315 | 0.0 | 0.0 | 0.00 | 0.00 | 0.00 | 81 | 1018.1 |
| 20260902102659 | 75 | 315 | 0.0 | 0.0 | 0.00 | 0.00 | 0.00 | 81 | 1018.1 |
| 20260902102558 | 75 | 315 | 0.0 | 0.0 | 0.00 | 0.00 | 0.00 | 81 | 1018.1 |
| 20260902102459 | 75 | 315 | 0.0 | 0.0 | 0.00 | 0.00 | 0.00 | 81 | 1018.1 |
| 20260902102359 | 75 | 315 | 0.0 | 0.0 | 0.00 | 0.00 | 0.00 | 81 | 1018.1 |
| 20260902102257 | 75 | 315 | 0.0 | 0.0 | 0.00 | 0.00 | 0.00 | 81 | 1018.2 |
| 20260902102159 | 75 | 315 | 0.0 | 0.0 | 0.00 | 0.00 | 0.00 | 81 | 1018.1 |
| 20260902101957 | 75 | 315 | 0.0 | 0.0 | 0.00 | 0.00 | 0.00 | 81 | 1018.1 |
| 20260902101859 | 75 | 315 | 0.0 | 0.0 | 0.00 | 0.00 | 0.00 | 81 | 1018.1 |
| 20260902101757 | 75 | 161 | 0.0 | 0.0 | 0.00 | 0.00 | 0.00 | 81 | 1018.1 |
| 20260902101657 | 75 | 161 | 0.0 | 0.0 | 0.00 | 0.00 | 0.00 | 81 | 1018.1 |
| 20260902101459 | 75 | 159 | 0.0 | 0.0 | 0.00 | 0.00 | 0.00 | 80 | 1018.1 |
| 20260902101357 | 75 | 159 | 0.0 | 0.0 | 0.00 | 0.00 | 0.00 | 80 | 1018.1 |
| 20260902101159 | 75 | 159 | 0.0 | 0.0 | 0.00 | 0.00 | 0.00 | 80 | 1018.0 |
| 20260902101057 | 75 | 159 | 0.0 | 0.0 | 0.00 | 0.00 | 0.00 | 80 | 1018.1 |
| 20260902100957 | 75 | 159 | 0.0 | 0.0 | 0.00 | 0.00 | 0.00 | 80 | 1018.1 |
| 20260902100857 | 75 | 129 | 0.0 | 0.0 | 0.00 | 0.00 | 0.00 | 80 | 1018.1 |
| 20260902100758 | 75 | 129 | 0.0 | 0.0 | 0.00 | 0.00 | 0.00 | 80 | 1018.0 |
| 20260902100658 | 75 | 129 | 0.0 | 0.0 | 0.00 | 0.00 | 0.00 | 80 | 1018.0 |
| 20260902100558 | 75 | 129 | 0.0 | 0.0 | 0.00 | 0.00 | 0.00 | 80 | 1018.0 |
| 20260902100259 | 75 | 129 | 0.0 | 0.0 | 0.00 | 0.00 | 0.00 | 80 | 1018.0 |
| 20260902100158 | 75 | 129 | 0.0 | 0.0 | 0.00 | 0.00 | 0.00 | 80 | 1017.9 |
| 20260902100058 | 75 | 129 | 0.0 | 0.0 | 0.00 | 0.00 | 0.00 | 80 | 1017.9 |
| 20260902100000 | 75 | 129 | 0.0 | 0.0 | 0.00 | 0.00 | 0.00 | 80 | 1017.9 |
| 20260902095857 | 75 | 129 | 0.0 | 0.0 | 0.00 | 0.00 | 0.00 | 79 | 1017.9 |
| 20260902095757 | 75 | 129 | 0.0 | 0.0 | 0.00 | 0.00 | 0.00 | 79 | 1017.9 |
| 20260902095558 | 75 | 129 | 0.0 | 0.0 | 0.00 | 0.00 | 0.00 | 79 | 1017.9 |
| 20260902095357 | 75 | 129 | 0.0 | 0.0 | 0.00 | 0.00 | 0.00 | 79 | 1018.0 |
| 20260902095257 | 75 | 129 | 0.0 | 0.0 | 0.00 | 0.00 | 0.00 | 79 | 1018.0 |
| 20260902095058 | 76 | 129 | 0.0 | 0.0 | 0.00 | 0.00 | 0.00 | 79 | 1018.0 |
| 20260902094957 | 76 | 129 | 0.0 | 0.0 | 0.00 | 0.00 | 0.00 | 79 | 1018.0 |
| 20260902094859 | 76 | 129 | 0.0 | 0.0 | 0.00 | 0.00 | 0.00 | 79 | 1018.0 |
| 20260902094658 | 76 | 129 | 0.0 | 0.0 | 0.00 | 0.00 | 0.00 | 79 | 1018.1 |
| 20260902094558 | 76 | 129 | 0.0 | 0.0 | 0.00 | 0.00 | 0.00 | 79 | 1018.1 |
| 20260902094458 | 76 | 129 | 0.0 | 0.0 | 0.00 | 0.00 | 0.00 | 79 | 1018.1 |
| 20260902094357 | 76 | 129 | 0.0 | 0.0 | 0.00 | 0.00 | 0.00 | 79 | 1018.1 |
| 20260902094258 | 76 | 129 | 0.0 | 0.0 | 0.00 | 0.00 | 0.00 | 79 | 1018.1 |
| 20260902094158 | 76 | 129 | 0.0 | 0.0 | 0.00 | 0.00 | 0.00 | 79 | 1018.1 |
| 20260902094058 | 76 | 129 | 0.0 | 0.0 | 0.00 | 0.00 | 0.00 | 79 | 1018.1 |
| 20260902093958 | 76 | 129 | 0.0 | 0.0 | 0.00 | 0.00 | 0.00 | 78 | 1018.2 |
| 20260902093857 | 76 | 129 | 0.0 | 0.0 | 0.00 | 0.00 | 0.00 | 78 | 1018.2 |
| 20260902093758 | 76 | 129 | 0.0 | 0.0 | 0.00 | 0.00 | 0.00 | 78 | 1018.2 |
| 20260902093657 | 76 | 129 | 0.0 | 0.0 | 0.00 | 0.00 | 0.00 | 78 | 1018.1 |
| 20260902093558 | 76 | 129 | 0.0 | 0.0 | 0.00 | 0.00 | 0.00 | 78 | 1018.1 |
| 20260902093458 | 76 | 129 | 0.0 | 0.0 | 0.00 | 0.00 | 0.00 | 78 | 1018.1 |
| 20260902093358 | 76 | 129 | 0.0 | 0.0 | 0.00 | 0.00 | 0.00 | 78 | 1018.2 |
| 20260902093159 | 76 | 129 | 0.0 | 0.0 | 0.00 | 0.00 | 0.00 | 78 | 1018.1 |
| 20260902093058 | 76 | 129 | 0.0 | 0.0 | 0.00 | 0.00 | 0.00 | 78 | 1018.1 |
| 20260902092957 | 76 | 129 | 0.0 | 0.0 | 0.00 | 0.00 | 0.00 | 78 | 1018.1 |
| 20260902092858 | 76 | 129 | 0.0 | 0.0 | 0.00 | 0.00 | 0.00 | 78 | 1018.2 |
| 20260902092759 | 76 | 129 | 0.0 | 0.0 | 0.00 | 0.00 | 0.00 | 78 | 1018.1 |
| 20260902092657 | 76 | 129 | 0.0 | 0.0 | 0.00 | 0.00 | 0.00 | 78 | 1018.1 |
| 20260902092458 | 76 | 129 | 0.0 | 0.0 | 0.00 | 0.00 | 0.00 | 78 | 1018.1 |
| 20260902092358 | 76 | 129 | 0.0 | 0.0 | 0.00 | 0.00 | 0.00 | 78 | 1018.1 |
| 20260902092258 | 76 | 129 | 0.0 | 0.0 | 0.00 | 0.00 | 0.00 | 78 | 1018.1 |
| 20260902092056 | 76 | 129 | 0.0 | 0.0 | 0.00 | 0.00 | 0.00 | 78 | 1017.9 |
| 20260902091958 | 76 | 129 | 0.0 | 0.0 | 0.00 | 0.00 | 0.00 | 78 | 1018.0 |
| 20260902091857 | 76 | 129 | 0.0 | 0.0 | 0.00 | 0.00 | 0.00 | 78 | 1017.9 |
| 20260902091758 | 76 | 129 | 0.0 | 0.0 | 0.00 | 0.00 | 0.00 | 78 | 1018.0 |
| 20260902091658 | 76 | 129 | 0.0 | 0.0 | 0.00 | 0.00 | 0.00 | 78 | 1018.0 |
| 20260902091558 | 76 | 129 | 0.0 | 0.0 | 0.00 | 0.00 | 0.00 | 78 | 1018.0 |
| 20260902091257 | 76 | 129 | 0.0 | 0.0 | 0.00 | 0.00 | 0.00 | 78 | 1018.0 |
| 20260902091158 | 76 | 129 | 0.0 | 0.0 | 0.00 | 0.00 | 0.00 | 78 | 1018.1 |
| 20260902091056 | 76 | 129 | 0.0 | 0.0 | 0.00 | 0.00 | 0.00 | 78 | 1018.0 |
| 20260902090957 | 76 | 129 | 0.0 | 0.0 | 0.00 | 0.00 | 0.00 | 78 | 1018.0 |
| 20260902090900 | 76 | 129 | 0.0 | 0.0 | 0.00 | 0.00 | 0.00 | 78 | 1018.0 |
| 20260902090758 | 76 | 129 | 0.0 | 0.0 | 0.00 | 0.00 | 0.00 | 79 | 1017.9 |
| 20260902090557 | 76 | 129 | 0.0 | 0.0 | 0.00 | 0.00 | 0.00 | 79 | 1017.9 |
| 20260902090457 | 76 | 129 | 0.0 | 0.0 | 0.00 | 0.00 | 0.00 | 79 | 1017.9 |
| 20260902090358 | 77 | 129 | 0.0 | 0.0 | 0.00 | 0.00 | 0.00 | 79 | 1017.9 |
| 20260902090157 | 77 | 129 | 0.0 | 0.0 | 0.00 | 0.00 | 0.00 | 79 | 1017.9 |
| 20260902085957 | 77 | 129 | 0.0 | 0.0 | 0.00 | 0.00 | 0.00 | 78 | 1017.9 |
| 20260902085858 | 77 | 129 | 0.0 | 0.0 | 0.00 | 0.00 | 0.00 | 78 | 1017.9 |
| 20260902085659 | 77 | 173 | 0.0 | 0.0 | 0.00 | 0.00 | 0.00 | 79 | 1017.9 |
| 20260902085558 | 77 | 173 | 0.0 | 0.0 | 0.00 | 0.00 | 0.00 | 79 | 1017.9 |
| 20260902085458 | 77 | 173 | 0.0 | 0.0 | 0.00 | 0.00 | 0.00 | 79 | 1017.9 |
| 20260902085257 | 77 | 173 | 0.0 | 0.0 | 0.00 | 0.00 | 0.00 | 79 | 1017.9 |
| 20260902085158 | 77 | 173 | 0.0 | 0.0 | 0.00 | 0.00 | 0.00 | 79 | 1017.9 |
| 20260902085057 | 77 | 162 | 0.0 | 0.0 | 0.00 | 0.00 | 0.00 | 79 | 1017.8 |
| 20260902084959 | 77 | 162 | 0.0 | 0.0 | 0.00 | 0.00 | 0.00 | 79 | 1017.8 |
| 20260902084859 | 77 | 162 | 0.0 | 0.0 | 0.00 | 0.00 | 0.00 | 79 | 1017.8 |
| 20260902084757 | 77 | 162 | 0.0 | 0.0 | 0.00 | 0.00 | 0.00 | 79 | 1017.8 |
| 20260902084658 | 77 | 162 | 0.0 | 0.0 | 0.00 | 0.00 | 0.00 | 79 | 1017.8 |
| 20260902084557 | 77 | 162 | 0.0 | 0.0 | 0.00 | 0.00 | 0.00 | 79 | 1017.8 |
| 20260902084457 | 77 | 162 | 0.0 | 0.0 | 0.00 | 0.00 | 0.00 | 79 | 1017.7 |
| 20260902084258 | 77 | 279 | 0.0 | 0.0 | 0.00 | 0.00 | 0.00 | 79 | 1017.8 |
| 20260902084156 | 77 | 280 | 0.0 | 0.0 | 0.00 | 0.00 | 0.00 | 79 | 1017.7 |
| 20260902084057 | 77 | 197 | 0.0 | 0.0 | 0.00 | 0.00 | 0.00 | 79 | 1017.7 |
| 20260902083959 | 77 | 181 | 0.0 | 0.0 | 0.00 | 0.00 | 0.00 | 79 | 1017.7 |
| 20260902083758 | 77 | 222 | 0.0 | 0.0 | 0.00 | 0.00 | 0.00 | 79 | 1017.7 |
| 20260902083658 | 77 | 222 | 0.0 | 0.0 | 0.00 | 0.00 | 0.00 | 79 | 1017.7 |
| 20260902083557 | 77 | 225 | 0.0 | 0.0 | 0.00 | 0.00 | 0.00 | 79 | 1017.6 |
| 20260902083457 | 77 | 225 | 0.0 | 0.0 | 0.00 | 0.00 | 0.00 | 79 | 1017.6 |
| 20260902083359 | 77 | 208 | 0.0 | 0.0 | 0.00 | 0.00 | 0.00 | 79 | 1017.6 |
| 20260902083258 | 77 | 208 | 0.0 | 0.0 | 0.00 | 0.00 | 0.00 | 79 | 1017.6 |
| 20260902083159 | 77 | 208 | 0.0 | 0.0 | 0.00 | 0.00 | 0.00 | 79 | 1017.6 |
| 20260902083057 | 77 | 208 | 0.0 | 0.0 | 0.00 | 0.00 | 0.00 | 79 | 1017.6 |
| 20260902082959 | 77 | 208 | 0.0 | 0.0 | 0.00 | 0.00 | 0.00 | 79 | 1017.6 |
| 20260902082859 | 77 | 208 | 0.0 | 0.0 | 0.00 | 0.00 | 0.00 | 79 | 1017.6 |
| 20260902082759 | 77 | 208 | 0.0 | 0.0 | 0.00 | 0.00 | 0.00 | 79 | 1017.6 |
| 20260902082657 | 77 | 244 | 0.0 | 0.0 | 0.00 | 0.00 | 0.00 | 79 | 1017.5 |
| 20260902082558 | 77 | 244 | 0.0 | 0.0 | 0.00 | 0.00 | 0.00 | 79 | 1017.6 |
| 20260902082458 | 77 | 244 | 0.0 | 0.0 | 0.00 | 0.00 | 0.00 | 79 | 1017.6 |
| 20260902082358 | 77 | 244 | 0.0 | 0.0 | 0.00 | 0.00 | 0.00 | 79 | 1017.6 |
| 20260902082258 | 77 | 244 | 0.0 | 0.0 | 0.00 | 0.00 | 0.00 | 78 | 1017.6 |
| 20260902082059 | 77 | 244 | 0.0 | 0.0 | 0.00 | 0.00 | 0.00 | 78 | 1017.6 |
| 20260902081858 | 77 | 244 | 0.0 | 0.0 | 0.00 | 0.00 | 0.00 | 78 | 1017.5 |
| 20260902081758 | 77 | 244 | 0.0 | 0.0 | 0.00 | 0.00 | 0.00 | 78 | 1017.5 |
| 20260902081659 | 77 | 244 | 0.0 | 0.0 | 0.00 | 0.00 | 0.00 | 78 | 1017.5 |
| 20260902081557 | 77 | 244 | 0.0 | 0.0 | 0.00 | 0.00 | 0.00 | 78 | 1017.5 |
| 20260902081457 | 77 | 244 | 0.0 | 0.0 | 0.00 | 0.00 | 0.00 | 78 | 1017.4 |
| 20260902081358 | 77 | 244 | 0.0 | 0.0 | 0.00 | 0.00 | 0.00 | 78 | 1017.4 |
| 20260902081258 | 77 | 244 | 0.0 | 0.0 | 0.00 | 0.00 | 0.00 | 78 | 1017.5 |
| 20260902081157 | 77 | 244 | 0.0 | 0.0 | 0.00 | 0.00 | 0.00 | 78 | 1017.5 |
| 20260902081058 | 77 | 244 | 0.0 | 0.0 | 0.00 | 0.00 | 0.00 | 78 | 1017.4 |
| 20260902080958 | 77 | 244 | 0.0 | 0.0 | 0.00 | 0.00 | 0.00 | 78 | 1017.4 |
| 20260902080859 | 77 | 244 | 0.0 | 0.0 | 0.00 | 0.00 | 0.00 | 78 | 1017.4 |
| 20260902080758 | 77 | 244 | 0.0 | 0.0 | 0.00 | 0.00 | 0.00 | 78 | 1017.4 |
| 20260902080658 | 77 | 244 | 0.0 | 0.0 | 0.00 | 0.00 | 0.00 | 78 | 1017.4 |
| 20260902080557 | 77 | 244 | 0.0 | 0.0 | 0.00 | 0.00 | 0.00 | 78 | 1017.4 |
| 20260902080457 | 77 | 244 | 0.0 | 0.0 | 0.00 | 0.00 | 0.00 | 78 | 1017.4 |
| 20260902080357 | 77 | 291 | 0.0 | 0.0 | 0.00 | 0.00 | 0.00 | 78 | 1017.4 |
| 20260902080157 | 77 | 291 | 0.0 | 0.0 | 0.00 | 0.00 | 0.00 | 78 | 1017.3 |
| 20260902080058 | 78 | 290 | 0.0 | 0.0 | 0.00 | 0.00 | 0.00 | 78 | 1017.3 |
| 20260902075957 | 77 | 175 | 0.0 | 0.0 | 0.00 | 0.00 | 0.00 | 78 | 1017.3 |
| 20260902075901 | 77 | 175 | 0.0 | 0.0 | 0.00 | 0.00 | 0.00 | 78 | 1017.3 |
| 20260902075757 | 77 | 187 | 0.0 | 0.0 | 0.00 | 0.00 | 0.00 | 78 | 1017.4 |
| 20260902075655 | 77 | 187 | 0.0 | 0.0 | 0.00 | 0.00 | 0.00 | 78 | 1017.4 |
| 20260902075557 | 77 | 187 | 0.0 | 0.0 | 0.00 | 0.00 | 0.00 | 78 | 1017.4 |
| 20260902075457 | 78 | 187 | 0.0 | 0.0 | 0.00 | 0.00 | 0.00 | 78 | 1017.4 |
| 20260902075358 | 78 | 187 | 0.0 | 0.0 | 0.00 | 0.00 | 0.00 | 78 | 1017.4 |
| 20260902075257 | 78 | 187 | 0.0 | 0.0 | 0.00 | 0.00 | 0.00 | 78 | 1017.4 |
| 20260902075156 | 78 | 187 | 0.0 | 0.0 | 0.00 | 0.00 | 0.00 | 78 | 1017.3 |
| 20260902074956 | 78 | 185 | 0.0 | 0.0 | 0.00 | 0.00 | 0.00 | 78 | 1017.2 |
| 20260902074857 | 78 | 185 | 0.0 | 0.0 | 0.00 | 0.00 | 0.00 | 78 | 1017.3 |
| 20260902074756 | 78 | 185 | 0.0 | 0.0 | 0.00 | 0.00 | 0.00 | 78 | 1017.2 |
| 20260902074656 | 78 | 185 | 0.0 | 0.0 | 0.00 | 0.00 | 0.00 | 78 | 1017.3 |
| 20260902074557 | 78 | 185 | 0.0 | 0.0 | 0.00 | 0.00 | 0.00 | 78 | 1017.2 |
| 20260902074457 | 78 | 185 | 0.0 | 0.0 | 0.00 | 0.00 | 0.00 | 78 | 1017.2 |
| 20260902074356 | 78 | 185 | 0.0 | 0.0 | 0.00 | 0.00 | 0.00 | 78 | 1017.3 |
| 20260902074256 | 78 | 185 | 0.0 | 0.0 | 0.00 | 0.00 | 0.00 | 78 | 1017.3 |
| 20260902074158 | 78 | 235 | 0.0 | 0.0 | 0.00 | 0.00 | 0.00 | 78 | 1017.3 |
| 20260902074059 | 78 | 235 | 0.0 | 0.0 | 0.00 | 0.00 | 0.00 | 78 | 1017.3 |
| 20260902073758 | 78 | 248 | 0.0 | 0.0 | 0.00 | 0.00 | 0.00 | 78 | 1017.3 |
| 20260902073657 | 78 | 248 | 0.0 | 0.0 | 0.00 | 0.00 | 0.00 | 78 | 1017.3 |
| 20260902073456 | 78 | 248 | 0.0 | 0.0 | 0.00 | 0.00 | 0.00 | 78 | 1017.3 |
| 20260902073356 | 78 | 248 | 0.0 | 0.0 | 0.00 | 0.00 | 0.00 | 77 | 1017.2 |
| 20260902073257 | 78 | 248 | 0.0 | 0.0 | 0.00 | 0.00 | 0.00 | 77 | 1017.3 |
| 20260902073159 | 78 | 248 | 0.0 | 0.0 | 0.00 | 0.00 | 0.00 | 77 | 1017.3 |
| 20260902073056 | 78 | 248 | 0.0 | 0.0 | 0.00 | 0.00 | 0.00 | 77 | 1017.1 |
| 20260902072959 | 78 | 248 | 0.0 | 0.0 | 0.00 | 0.00 | 0.00 | 77 | 1017.3 |
| 20260902072856 | 78 | 248 | 0.0 | 0.0 | 0.00 | 0.00 | 0.00 | 77 | 1017.2 |
| 20260902072758 | 78 | 247 | 0.0 | 0.0 | 0.00 | 0.00 | 0.00 | 77 | 1017.2 |
| 20260902072657 | 78 | 247 | 0.0 | 0.0 | 0.00 | 0.00 | 0.00 | 77 | 1017.2 |
| 20260902072556 | 78 | 247 | 0.0 | 0.0 | 0.00 | 0.00 | 0.00 | 78 | 1017.2 |
| 20260902072457 | 78 | 247 | 0.0 | 0.0 | 0.00 | 0.00 | 0.00 | 77 | 1017.1 |
| 20260902072256 | 78 | 247 | 0.0 | 0.0 | 0.00 | 0.00 | 0.00 | 77 | 1017.2 |
| 20260902072157 | 78 | 242 | 0.0 | 0.0 | 0.00 | 0.00 | 0.00 | 77 | 1017.2 |
| 20260902072058 | 78 | 232 | 0.0 | 0.0 | 0.00 | 0.00 | 0.00 | 77 | 1017.2 |
| 20260902071957 | 78 | 232 | 0.0 | 0.0 | 0.00 | 0.00 | 0.00 | 78 | 1017.1 |
| 20260902071856 | 78 | 231 | 0.0 | 0.0 | 0.00 | 0.00 | 0.00 | 77 | 1017.2 |
| 20260902071658 | 78 | 231 | 0.0 | 0.0 | 0.00 | 0.00 | 0.00 | 77 | 1017.1 |
| 20260902071557 | 78 | 231 | 0.0 | 0.0 | 0.00 | 0.00 | 0.00 | 77 | 1017.2 |
| 20260902071357 | 78 | 225 | 0.0 | 0.0 | 0.00 | 0.00 | 0.00 | 78 | 1017.1 |
| 20260902071257 | 78 | 225 | 0.0 | 0.0 | 0.00 | 0.00 | 0.00 | 77 | 1017.2 |
| 20260902071056 | 78 | 215 | 0.0 | 0.0 | 0.00 | 0.00 | 0.00 | 77 | 1017.3 |
| 20260902070956 | 78 | 215 | 0.0 | 0.0 | 0.00 | 0.00 | 0.00 | 77 | 1017.3 |
| 20260902070857 | 78 | 215 | 0.0 | 0.0 | 0.00 | 0.00 | 0.00 | 77 | 1017.2 |
| 20260902070757 | 78 | 215 | 0.0 | 0.0 | 0.00 | 0.00 | 0.00 | 77 | 1017.2 |
| 20260902070556 | 78 | 215 | 0.0 | 1.0 | 0.00 | 0.00 | 0.00 | 77 | 1017.3 |
| 20260902070456 | 78 | 215 | 0.0 | 1.0 | 0.00 | 0.00 | 0.00 | 77 | 1017.3 |
| 20260902070256 | 78 | 215 | 0.0 | 1.0 | 0.00 | 0.00 | 0.00 | 78 | 1017.2 |
| 20260902070157 | 78 | 215 | 0.0 | 1.0 | 0.00 | 0.00 | 0.00 | 78 | 1017.3 |
| 20260902070056 | 78 | 207 | 0.0 | 1.0 | 0.00 | 0.00 | 0.00 | 78 | 1017.3 |
| 20260902065959 | 78 | 181 | 0.0 | 1.0 | 0.00 | 0.00 | 0.00 | 78 | 1017.3 |
| 20260902065859 | 78 | 181 | 0.0 | 1.0 | 0.00 | 0.00 | 0.00 | 78 | 1017.3 |
| 20260902065758 | 78 | 231 | 0.0 | 0.0 | 0.00 | 0.00 | 0.00 | 78 | 1017.3 |
| 20260902065657 | 78 | 232 | 0.0 | 0.0 | 0.00 | 0.00 | 0.00 | 78 | 1017.3 |
| 20260902065559 | 78 | 237 | 0.0 | 0.0 | 0.00 | 0.00 | 0.00 | 78 | 1017.3 |
| 20260902065500 | 78 | 237 | 0.0 | 0.0 | 0.00 | 0.00 | 0.00 | 78 | 1017.3 |
| 20260902065359 | 78 | 237 | 0.0 | 0.0 | 0.00 | 0.00 | 0.00 | 78 | 1017.2 |
| 20260902065157 | 78 | 237 | 0.0 | 0.0 | 0.00 | 0.00 | 0.00 | 78 | 1017.3 |
| 20260902065057 | 78 | 237 | 0.0 | 0.0 | 0.00 | 0.00 | 0.00 | 78 | 1017.3 |
| 20260902064957 | 78 | 237 | 0.0 | 0.0 | 0.00 | 0.00 | 0.00 | 78 | 1017.3 |
| 20260902064858 | 78 | 237 | 0.0 | 0.0 | 0.00 | 0.00 | 0.00 | 78 | 1017.2 |
| 20260902064757 | 78 | 237 | 0.0 | 0.0 | 0.00 | 0.00 | 0.00 | 78 | 1017.2 |
| 20260902064659 | 78 | 237 | 0.0 | 0.0 | 0.00 | 0.00 | 0.00 | 78 | 1017.2 |
| 20260902064558 | 78 | 237 | 0.0 | 0.0 | 0.00 | 0.00 | 0.00 | 78 | 1017.3 |
| 20260902064357 | 78 | 237 | 0.0 | 0.0 | 0.00 | 0.00 | 0.00 | 78 | 1017.3 |
| 20260902064258 | 78 | 231 | 0.0 | 0.0 | 0.00 | 0.00 | 0.00 | 78 | 1017.3 |
| 20260902064157 | 78 | 231 | 0.0 | 0.0 | 0.00 | 0.00 | 0.00 | 78 | 1017.3 |
| 20260902064057 | 78 | 231 | 0.0 | 0.0 | 0.00 | 0.00 | 0.00 | 78 | 1017.2 |
| 20260902063857 | 78 | 231 | 0.0 | 0.0 | 0.00 | 0.00 | 0.00 | 78 | 1017.3 |
| 20260902063759 | 78 | 231 | 0.0 | 0.0 | 0.00 | 0.00 | 0.00 | 78 | 1017.3 |
| 20260902063658 | 78 | 231 | 0.0 | 0.0 | 0.00 | 0.00 | 0.00 | 78 | 1017.3 |
| 20260902063559 | 78 | 211 | 0.0 | 0.0 | 0.00 | 0.00 | 0.00 | 78 | 1017.3 |
| 20260902063459 | 78 | 211 | 0.0 | 0.0 | 0.00 | 0.00 | 0.00 | 78 | 1017.3 |
| 20260902063358 | 78 | 211 | 0.0 | 0.0 | 0.00 | 0.00 | 0.00 | 78 | 1017.3 |
| 20260902063256 | 78 | 222 | 0.0 | 0.0 | 0.00 | 0.00 | 0.00 | 78 | 1017.3 |
| 20260902063158 | 78 | 223 | 0.0 | 0.0 | 0.00 | 0.00 | 0.00 | 78 | 1017.3 |
| 20260902063058 | 78 | 223 | 0.0 | 0.0 | 0.00 | 0.00 | 0.00 | 78 | 1017.4 |
| 20260902062957 | 78 | 221 | 0.0 | 0.0 | 0.00 | 0.00 | 0.00 | 78 | 1017.3 |
| 20260902062858 | 78 | 221 | 0.0 | 0.0 | 0.00 | 0.00 | 0.00 | 78 | 1017.4 |
| 20260902062758 | 78 | 221 | 0.0 | 0.0 | 0.00 | 0.00 | 0.00 | 78 | 1017.3 |
| 20260902062659 | 78 | 214 | 0.0 | 0.0 | 0.00 | 0.00 | 0.00 | 78 | 1017.3 |
| 20260902062557 | 78 | 214 | 0.0 | 0.0 | 0.00 | 0.00 | 0.00 | 78 | 1017.4 |
| 20260902062459 | 78 | 214 | 0.0 | 0.0 | 0.00 | 0.00 | 0.00 | 78 | 1017.3 |
| 20260902062357 | 78 | 214 | 0.0 | 0.0 | 0.00 | 0.00 | 0.00 | 78 | 1017.3 |
| 20260902062258 | 78 | 214 | 0.0 | 0.0 | 0.00 | 0.00 | 0.00 | 78 | 1017.4 |
| 20260902062157 | 78 | 214 | 0.0 | 0.0 | 0.00 | 0.00 | 0.00 | 78 | 1017.4 |
| 20260902061958 | 78 | 214 | 0.0 | 0.0 | 0.00 | 0.00 | 0.00 | 78 | 1017.3 |
| 20260902061858 | 78 | 214 | 0.0 | 0.0 | 0.00 | 0.00 | 0.00 | 78 | 1017.3 |
| 20260902061557 | 78 | 214 | 0.0 | 0.0 | 0.00 | 0.00 | 0.00 | 78 | 1017.3 |
| 20260902061357 | 78 | 214 | 0.0 | 0.0 | 0.00 | 0.00 | 0.00 | 78 | 1017.3 |
| 20260902061159 | 78 | 214 | 0.0 | 0.0 | 0.00 | 0.00 | 0.00 | 78 | 1017.3 |
| 20260902060958 | 78 | 214 | 0.0 | 0.0 | 0.00 | 0.00 | 0.00 | 78 | 1017.4 |
| 20260902060857 | 78 | 214 | 0.0 | 0.0 | 0.00 | 0.00 | 0.00 | 78 | 1017.3 |
| 20260902060758 | 78 | 214 | 0.0 | 0.0 | 0.00 | 0.00 | 0.00 | 78 | 1017.4 |
| 20260902060657 | 78 | 214 | 0.0 | 0.0 | 0.00 | 0.00 | 0.00 | 78 | 1017.4 |
| 20260902060457 | 78 | 207 | 0.0 | 0.0 | 0.00 | 0.00 | 0.00 | 78 | 1017.4 |
| 20260902060359 | 78 | 203 | 0.0 | 0.0 | 0.00 | 0.00 | 0.00 | 78 | 1017.3 |
| 20260902060158 | 78 | 203 | 0.0 | 0.0 | 0.00 | 0.00 | 0.00 | 78 | 1017.3 |
| 20260902055959 | 78 | 203 | 0.0 | 0.0 | 0.00 | 0.00 | 0.00 | 78 | 1017.3 |
| 20260902055858 | 78 | 203 | 0.0 | 0.0 | 0.00 | 0.00 | 0.00 | 78 | 1017.4 |
| 20260902055757 | 78 | 203 | 0.0 | 0.0 | 0.00 | 0.00 | 0.00 | 78 | 1017.4 |
| 20260902055658 | 78 | 203 | 0.0 | 0.0 | 0.00 | 0.00 | 0.00 | 78 | 1017.3 |
| 20260902055557 | 78 | 203 | 0.0 | 0.0 | 0.00 | 0.00 | 0.00 | 78 | 1017.4 |
| 20260902055459 | 78 | 203 | 0.0 | 0.0 | 0.00 | 0.00 | 0.00 | 78 | 1017.4 |
| 20260902055401 | 78 | 203 | 0.0 | 0.0 | 0.00 | 0.00 | 0.00 | 78 | 1017.3 |
| 20260902055257 | 78 | 203 | 0.0 | 0.0 | 0.00 | 0.00 | 0.00 | 78 | 1017.4 |
| 20260902055159 | 78 | 203 | 0.0 | 0.0 | 0.00 | 0.00 | 0.00 | 78 | 1017.4 |
| 20260902055057 | 78 | 203 | 0.0 | 0.0 | 0.00 | 0.00 | 0.00 | 78 | 1017.4 |
| 20260902054957 | 78 | 203 | 0.0 | 0.0 | 0.00 | 0.00 | 0.00 | 78 | 1017.4 |
| 20260902054857 | 78 | 203 | 0.0 | 0.0 | 0.00 | 0.00 | 0.00 | 78 | 1017.4 |
| 20260902054759 | 78 | 203 | 0.0 | 0.0 | 0.00 | 0.00 | 0.00 | 78 | 1017.4 |
| 20260902054657 | 79 | 203 | 0.0 | 0.0 | 0.00 | 0.00 | 0.00 | 78 | 1017.4 |
| 20260902054457 | 79 | 203 | 0.0 | 0.0 | 0.00 | 0.00 | 0.00 | 78 | 1017.4 |
| 20260902054358 | 79 | 203 | 0.0 | 0.0 | 0.00 | 0.00 | 0.00 | 78 | 1017.4 |
| 20260902054257 | 79 | 203 | 0.0 | 0.0 | 0.00 | 0.00 | 0.00 | 78 | 1017.4 |
| 20260902054158 | 79 | 203 | 0.0 | 0.0 | 0.00 | 0.00 | 0.00 | 77 | 1017.4 |
| 20260902053958 | 79 | 203 | 0.0 | 0.0 | 0.00 | 0.00 | 0.00 | 77 | 1017.3 |
| 20260902053857 | 79 | 203 | 0.0 | 0.0 | 0.00 | 0.00 | 0.00 | 77 | 1017.4 |
| 20260902053758 | 79 | 203 | 0.0 | 0.0 | 0.00 | 0.00 | 0.00 | 77 | 1017.4 |
| 20260902053658 | 79 | 203 | 0.0 | 0.0 | 0.00 | 0.00 | 0.00 | 77 | 1017.4 |
| 20260902053557 | 79 | 203 | 0.0 | 0.0 | 0.00 | 0.00 | 0.00 | 77 | 1017.4 |
| 20260902053358 | 79 | 203 | 0.0 | 0.0 | 0.00 | 0.00 | 0.00 | 77 | 1017.4 |
| 20260902053259 | 79 | 203 | 0.0 | 0.0 | 0.00 | 0.00 | 0.00 | 77 | 1017.4 |
| 20260902053157 | 79 | 203 | 0.0 | 0.0 | 0.00 | 0.00 | 0.00 | 77 | 1017.4 |
| 20260902053057 | 79 | 203 | 0.0 | 0.0 | 0.00 | 0.00 | 0.00 | 77 | 1017.4 |
| 20260902052958 | 79 | 203 | 0.0 | 0.0 | 0.00 | 0.00 | 0.00 | 77 | 1017.4 |
| 20260902052858 | 79 | 203 | 0.0 | 0.0 | 0.00 | 0.00 | 0.00 | 77 | 1017.4 |
| 20260902052757 | 79 | 203 | 0.0 | 0.0 | 0.00 | 0.00 | 0.00 | 77 | 1017.3 |
| 20260902052657 | 79 | 203 | 0.0 | 0.0 | 0.00 | 0.00 | 0.00 | 77 | 1017.4 |
| 20260902052557 | 79 | 203 | 0.0 | 0.0 | 0.00 | 0.00 | 0.00 | 77 | 1017.4 |
| 20260902052359 | 79 | 203 | 0.0 | 0.0 | 0.00 | 0.00 | 0.00 | 77 | 1017.4 |
| 20260902052159 | 79 | 203 | 0.0 | 0.0 | 0.00 | 0.00 | 0.00 | 77 | 1017.4 |
| 20260902052058 | 79 | 203 | 0.0 | 0.0 | 0.00 | 0.00 | 0.00 | 77 | 1017.3 |
| 20260902051858 | 79 | 203 | 0.0 | 0.0 | 0.00 | 0.00 | 0.00 | 77 | 1017.4 |
| 20260902051759 | 79 | 203 | 0.0 | 0.0 | 0.00 | 0.00 | 0.00 | 77 | 1017.3 |
| 20260902051658 | 79 | 203 | 0.0 | 0.0 | 0.00 | 0.00 | 0.00 | 77 | 1017.4 |
| 20260902051459 | 79 | 193 | 0.0 | 0.0 | 0.00 | 0.00 | 0.00 | 77 | 1017.3 |
| 20260902051357 | 79 | 193 | 0.0 | 0.0 | 0.00 | 0.00 | 0.00 | 77 | 1017.3 |
| 20260902051257 | 79 | 193 | 0.0 | 0.0 | 0.00 | 0.00 | 0.00 | 77 | 1017.4 |
| 20260902051157 | 79 | 193 | 0.0 | 0.0 | 0.00 | 0.00 | 0.00 | 77 | 1017.4 |
| 20260902051057 | 79 | 193 | 0.0 | 0.0 | 0.00 | 0.00 | 0.00 | 77 | 1017.3 |
| 20260902050959 | 79 | 193 | 0.0 | 0.0 | 0.00 | 0.00 | 0.00 | 77 | 1017.4 |
| 20260902050857 | 79 | 192 | 0.0 | 0.0 | 0.00 | 0.00 | 0.00 | 77 | 1017.4 |
| 20260902050756 | 79 | 192 | 0.0 | 0.0 | 0.00 | 0.00 | 0.00 | 77 | 1017.3 |
| 20260902050658 | 79 | 192 | 0.0 | 0.0 | 0.00 | 0.00 | 0.00 | 77 | 1017.4 |
| 20260902050459 | 79 | 198 | 0.0 | 0.0 | 0.00 | 0.00 | 0.00 | 77 | 1017.4 |
| 20260902050358 | 79 | 198 | 0.0 | 0.0 | 0.00 | 0.00 | 0.00 | 77 | 1017.4 |
| 20260902050259 | 79 | 200 | 0.0 | 0.0 | 0.00 | 0.00 | 0.00 | 77 | 1017.4 |
| 20260902050157 | 79 | 200 | 0.0 | 0.0 | 0.00 | 0.00 | 0.00 | 77 | 1017.4 |
| 20260902050059 | 79 | 200 | 0.0 | 0.0 | 0.00 | 0.00 | 0.00 | 77 | 1017.4 |
| 20260902045959 | 79 | 200 | 0.0 | 0.0 | 0.00 | 0.00 | 0.00 | 77 | 1017.6 |
| 20260902045757 | 79 | 200 | 0.0 | 0.0 | 0.00 | 0.00 | 0.00 | 77 | 1017.5 |
| 20260902045700 | 79 | 200 | 0.0 | 0.0 | 0.00 | 0.00 | 0.00 | 77 | 1017.5 |
| 20260902045559 | 79 | 200 | 0.0 | 0.0 | 0.00 | 0.00 | 0.00 | 77 | 1017.5 |
| 20260902045458 | 79 | 200 | 0.0 | 0.0 | 0.00 | 0.00 | 0.00 | 76 | 1017.5 |
| 20260902045400 | 79 | 200 | 0.0 | 0.0 | 0.00 | 0.00 | 0.00 | 76 | 1017.5 |
| 20260902045300 | 79 | 200 | 0.0 | 0.0 | 0.00 | 0.00 | 0.00 | 76 | 1017.5 |
| 20260902045200 | 79 | 200 | 0.0 | 0.0 | 0.00 | 0.00 | 0.00 | 76 | 1017.4 |
| 20260902045058 | 79 | 200 | 0.0 | 0.0 | 0.00 | 0.00 | 0.00 | 76 | 1017.5 |
| 20260902044959 | 79 | 223 | 0.0 | 0.0 | 0.00 | 0.00 | 0.00 | 76 | 1017.5 |
| 20260902044859 | 79 | 223 | 0.0 | 0.0 | 0.00 | 0.00 | 0.00 | 76 | 1017.4 |
| 20260902044759 | 79 | 223 | 0.0 | 0.0 | 0.00 | 0.00 | 0.00 | 76 | 1017.5 |
| 20260902044659 | 79 | 223 | 0.0 | 0.0 | 0.00 | 0.00 | 0.00 | 76 | 1017.4 |
| 20260902044559 | 79 | 223 | 0.0 | 0.0 | 0.00 | 0.00 | 0.00 | 76 | 1017.5 |
| 20260902044458 | 79 | 223 | 0.0 | 0.0 | 0.00 | 0.00 | 0.00 | 76 | 1017.5 |
| 20260902044358 | 79 | 223 | 0.0 | 0.0 | 0.00 | 0.00 | 0.00 | 76 | 1017.5 |
| 20260902044258 | 79 | 223 | 0.0 | 0.0 | 0.00 | 0.00 | 0.00 | 76 | 1017.5 |
| 20260902044201 | 79 | 206 | 0.0 | 0.0 | 0.00 | 0.00 | 0.00 | 76 | 1017.4 |
| 20260902044058 | 79 | 207 | 0.0 | 0.0 | 0.00 | 0.00 | 0.00 | 76 | 1017.5 |
| 20260902043958 | 79 | 207 | 0.0 | 0.0 | 0.00 | 0.00 | 0.00 | 76 | 1017.5 |
| 20260902043858 | 79 | 206 | 0.0 | 0.0 | 0.00 | 0.00 | 0.00 | 76 | 1017.5 |
| 20260902043659 | 80 | 206 | 0.0 | 0.0 | 0.00 | 0.00 | 0.00 | 76 | 1017.5 |
| 20260902043559 | 80 | 207 | 0.0 | 0.0 | 0.00 | 0.00 | 0.00 | 76 | 1017.4 |
| 20260902043459 | 80 | 206 | 0.0 | 0.0 | 0.00 | 0.00 | 0.00 | 76 | 1017.5 |
| 20260902043301 | 80 | 206 | 0.0 | 0.0 | 0.00 | 0.00 | 0.00 | 75 | 1017.4 |
| 20260902043159 | 80 | 206 | 0.0 | 0.0 | 0.00 | 0.00 | 0.00 | 75 | 1017.4 |
| 20260902043100 | 80 | 207 | 0.0 | 0.0 | 0.00 | 0.00 | 0.00 | 75 | 1017.4 |
| 20260902043001 | 80 | 206 | 0.0 | 0.0 | 0.00 | 0.00 | 0.00 | 75 | 1017.4 |
| 20260902042859 | 80 | 206 | 0.0 | 0.0 | 0.00 | 0.00 | 0.00 | 75 | 1017.4 |
| 20260902042559 | 80 | 206 | 0.0 | 0.0 | 0.00 | 0.00 | 0.00 | 75 | 1017.5 |
| 20260902042458 | 80 | 207 | 0.0 | 0.0 | 0.00 | 0.00 | 0.00 | 75 | 1017.4 |
| 20260902042359 | 80 | 206 | 0.0 | 0.0 | 0.00 | 0.00 | 0.00 | 75 | 1017.5 |
| 20260902042300 | 80 | 207 | 0.0 | 0.0 | 0.00 | 0.00 | 0.00 | 75 | 1017.5 |
| 20260902042158 | 80 | 207 | 0.0 | 0.0 | 0.00 | 0.00 | 0.00 | 75 | 1017.4 |
| 20260902042059 | 80 | 206 | 0.0 | 0.0 | 0.00 | 0.00 | 0.00 | 75 | 1017.4 |
| 20260902042000 | 80 | 207 | 0.0 | 0.0 | 0.00 | 0.00 | 0.00 | 75 | 1017.4 |
| 20260902041759 | 80 | 207 | 0.0 | 0.0 | 0.00 | 0.00 | 0.00 | 74 | 1017.4 |
| 20260902041659 | 80 | 206 | 0.0 | 0.0 | 0.00 | 0.00 | 0.00 | 74 | 1017.4 |
| 20260902041459 | 80 | 206 | 0.0 | 0.0 | 0.00 | 0.00 | 0.00 | 74 | 1017.4 |
| 20260902041359 | 80 | 206 | 0.0 | 0.0 | 0.00 | 0.00 | 0.00 | 74 | 1017.3 |
| 20260902041300 | 80 | 206 | 0.0 | 0.0 | 0.00 | 0.00 | 0.00 | 74 | 1017.3 |
| 20260902041159 | 80 | 206 | 0.0 | 0.0 | 0.00 | 0.00 | 0.00 | 74 | 1017.3 |
| 20260902040859 | 80 | 196 | 0.0 | 0.0 | 0.00 | 0.00 | 0.00 | 74 | 1017.4 |
| 20260902040759 | 80 | 196 | 0.0 | 0.0 | 0.00 | 0.00 | 0.00 | 73 | 1017.4 |
| 20260902040700 | 80 | 196 | 0.0 | 0.0 | 0.00 | 0.00 | 0.00 | 73 | 1017.3 |
| 20260902040600 | 80 | 196 | 0.0 | 0.0 | 0.00 | 0.00 | 0.00 | 73 | 1017.4 |
| 20260902040459 | 80 | 196 | 0.0 | 0.0 | 0.00 | 0.00 | 0.00 | 73 | 1017.4 |
| 20260902040358 | 80 | 196 | 0.0 | 0.0 | 0.00 | 0.00 | 0.00 | 73 | 1017.5 |
| 20260902040258 | 80 | 196 | 0.0 | 0.0 | 0.00 | 0.00 | 0.00 | 73 | 1017.5 |
| 20260902040159 | 80 | 196 | 0.0 | 0.0 | 0.00 | 0.00 | 0.00 | 73 | 1017.5 |
| 20260902035858 | 81 | 196 | 0.0 | 0.0 | 0.00 | 0.00 | 0.00 | 73 | 1017.5 |
| 20260902035800 | 81 | 196 | 0.0 | 0.0 | 0.00 | 0.00 | 0.00 | 73 | 1017.5 |
| 20260902035659 | 81 | 196 | 0.0 | 0.0 | 0.00 | 0.00 | 0.00 | 73 | 1017.5 |
| 20260902035558 | 81 | 196 | 0.0 | 0.0 | 0.00 | 0.00 | 0.00 | 73 | 1017.5 |
| 20260902035458 | 81 | 196 | 0.0 | 0.0 | 0.00 | 0.00 | 0.00 | 73 | 1017.5 |
| 20260902035400 | 81 | 196 | 0.0 | 0.0 | 0.00 | 0.00 | 0.00 | 73 | 1017.5 |
| 20260902035258 | 81 | 196 | 0.0 | 0.0 | 0.00 | 0.00 | 0.00 | 73 | 1017.5 |
| 20260902035158 | 81 | 196 | 0.0 | 0.0 | 0.00 | 0.00 | 0.00 | 73 | 1017.4 |
| 20260902035058 | 81 | 196 | 0.0 | 0.0 | 0.00 | 0.00 | 0.00 | 73 | 1017.4 |
| 20260902034958 | 81 | 196 | 0.0 | 0.0 | 0.00 | 0.00 | 0.00 | 72 | 1017.4 |
| 20260902034859 | 81 | 196 | 0.0 | 0.0 | 0.00 | 0.00 | 0.00 | 72 | 1017.5 |
| 20260902034758 | 81 | 196 | 0.0 | 0.0 | 0.00 | 0.00 | 0.00 | 72 | 1017.4 |
| 20260902034658 | 81 | 196 | 0.0 | 0.0 | 0.00 | 0.00 | 0.00 | 72 | 1017.4 |
| 20260902034558 | 81 | 196 | 0.0 | 0.0 | 0.00 | 0.00 | 0.00 | 72 | 1017.4 |
| 20260902034459 | 81 | 196 | 0.0 | 0.0 | 0.00 | 0.00 | 0.00 | 72 | 1017.4 |
| 20260902034359 | 81 | 196 | 0.0 | 0.0 | 0.00 | 0.00 | 0.00 | 72 | 1017.5 |
| 20260902034259 | 81 | 196 | 0.0 | 0.0 | 0.00 | 0.00 | 0.00 | 72 | 1017.5 |
| 20260902034158 | 81 | 196 | 0.0 | 0.0 | 0.00 | 0.00 | 0.00 | 72 | 1017.5 |
| 20260902034059 | 81 | 196 | 0.0 | 0.0 | 0.00 | 0.00 | 0.00 | 72 | 1017.5 |
| 20260902033958 | 81 | 196 | 0.0 | 0.0 | 0.00 | 0.00 | 0.00 | 72 | 1017.5 |
| 20260902033858 | 81 | 196 | 0.0 | 0.0 | 0.00 | 0.00 | 0.00 | 72 | 1017.5 |
| 20260902033758 | 81 | 196 | 0.0 | 0.0 | 0.00 | 0.00 | 0.00 | 72 | 1017.6 |
| 20260902033658 | 81 | 194 | 0.0 | 0.0 | 0.00 | 0.00 | 0.00 | 72 | 1017.5 |
| 20260902033459 | 81 | 194 | 0.0 | 0.0 | 0.00 | 0.00 | 0.00 | 72 | 1017.5 |
| 20260902033358 | 81 | 194 | 0.0 | 0.0 | 0.00 | 0.00 | 0.00 | 72 | 1017.5 |
| 20260902033258 | 81 | 194 | 0.0 | 0.0 | 0.00 | 0.00 | 0.00 | 72 | 1017.5 |
| 20260902033158 | 81 | 194 | 0.0 | 0.0 | 0.00 | 0.00 | 0.00 | 72 | 1017.5 |
| 20260902033058 | 81 | 194 | 0.0 | 0.0 | 0.00 | 0.00 | 0.00 | 72 | 1017.5 |
| 20260902033000 | 81 | 194 | 0.0 | 0.0 | 0.00 | 0.00 | 0.00 | 72 | 1017.5 |
| 20260902032900 | 81 | 194 | 0.0 | 0.0 | 0.00 | 0.00 | 0.00 | 72 | 1017.5 |
| 20260902032100 | 81 | 250 | 0.0 | 0.0 | 0.00 | 0.00 | 0.00 | 72 | 1017.4 |
| 20260902031803 | 81 | 248 | 0.0 | 0.0 | 0.00 | 0.00 | 0.00 | 72 | 1017.4 |
| 20260902031700 | 81 | 267 | 0.0 | 0.0 | 0.00 | 0.00 | 0.00 | 73 | 1017.4 |
| 20260902031605 | 81 | 268 | 0.0 | 0.0 | 0.00 | 0.00 | 0.00 | 73 | 1017.4 |
| 20260902031508 | 81 | 257 | 0.0 | 0.0 | 0.00 | 0.00 | 0.00 | 73 | 1017.4 |
| 20260902031404 | 81 | 257 | 0.0 | 0.0 | 0.00 | 0.00 | 0.00 | 73 | 1017.4 |
| 20260902031301 | 81 | 258 | 0.0 | 0.0 | 0.00 | 0.00 | 0.00 | 73 | 1017.4 |
| 20260902031103 | 81 | 258 | 0.0 | 0.0 | 0.00 | 0.00 | 0.00 | 73 | 1017.4 |
| 20260902031001 | 81 | 258 | 0.0 | 0.0 | 0.00 | 0.00 | 0.00 | 73 | 1017.4 |
| 20260902030759 | 81 | 153 | 0.0 | 0.0 | 0.00 | 0.00 | 0.00 | 73 | 1017.4 |
| 20260902030707 | 81 | 269 | 0.0 | 0.0 | 0.00 | 0.00 | 0.00 | 73 | 1017.4 |
| 20260902030502 | 81 | 202 | 0.0 | 0.0 | 0.00 | 0.00 | 0.00 | 73 | 1017.4 |
| 20260902030359 | 81 | 202 | 0.0 | 0.0 | 0.00 | 0.00 | 0.00 | 73 | 1017.4 |
| 20260902030306 | 81 | 202 | 0.0 | 0.0 | 0.00 | 0.00 | 0.00 | 73 | 1017.4 |
| 20260902030200 | 81 | 202 | 0.0 | 0.0 | 0.00 | 0.00 | 0.00 | 73 | 1017.4 |
| 20260902030059 | 81 | 202 | 0.0 | 0.0 | 0.00 | 0.00 | 0.00 | 73 | 1017.4 |
| 20260902025959 | 81 | 202 | 0.0 | 0.0 | 0.00 | 0.00 | 0.00 | 73 | 1017.3 |
| 20260902025858 | 81 | 202 | 0.0 | 0.0 | 0.00 | 0.00 | 0.00 | 73 | 1017.3 |
| 20260902025659 | 81 | 202 | 0.0 | 0.0 | 0.00 | 0.00 | 0.00 | 73 | 1017.4 |
| 20260902025600 | 81 | 202 | 0.0 | 0.0 | 0.00 | 0.00 | 0.00 | 73 | 1017.4 |
| 20260902025458 | 81 | 202 | 0.0 | 0.0 | 0.00 | 0.00 | 0.00 | 73 | 1017.4 |
| 20260902025300 | 81 | 202 | 0.0 | 0.0 | 0.00 | 0.00 | 0.00 | 73 | 1017.4 |
| 20260902025158 | 81 | 202 | 0.0 | 0.0 | 0.00 | 0.00 | 0.00 | 73 | 1017.5 |
| 20260902025058 | 81 | 202 | 0.0 | 0.0 | 0.00 | 0.00 | 0.00 | 73 | 1017.5 |
| 20260902024958 | 81 | 202 | 0.0 | 0.0 | 0.00 | 0.00 | 0.00 | 73 | 1017.4 |
| 20260902024858 | 81 | 202 | 0.0 | 0.0 | 0.00 | 0.00 | 0.00 | 73 | 1017.4 |
| 20260902024758 | 81 | 202 | 0.0 | 0.0 | 0.00 | 0.00 | 0.00 | 73 | 1017.4 |
| 20260902024558 | 81 | 202 | 0.0 | 0.0 | 0.00 | 0.00 | 0.00 | 73 | 1017.5 |
| 20260902024500 | 81 | 202 | 0.0 | 0.0 | 0.00 | 0.00 | 0.00 | 73 | 1017.4 |
| 20260902024358 | 81 | 202 | 0.0 | 0.0 | 0.00 | 0.00 | 0.00 | 73 | 1017.5 |
| 20260902024159 | 81 | 202 | 0.0 | 0.0 | 0.00 | 0.00 | 0.00 | 73 | 1017.5 |
| 20260902024058 | 81 | 202 | 0.0 | 0.0 | 0.00 | 0.00 | 0.00 | 73 | 1017.5 |
| 20260902023959 | 81 | 202 | 0.0 | 0.0 | 0.00 | 0.00 | 0.00 | 73 | 1017.5 |
| 20260902023900 | 81 | 202 | 0.0 | 0.0 | 0.00 | 0.00 | 0.00 | 73 | 1017.4 |
| 20260902023758 | 81 | 202 | 0.0 | 0.0 | 0.00 | 0.00 | 0.00 | 73 | 1017.4 |
| 20260902023659 | 81 | 202 | 0.0 | 0.0 | 0.00 | 0.00 | 0.00 | 74 | 1017.5 |
| 20260902023559 | 81 | 202 | 0.0 | 0.0 | 0.00 | 0.00 | 0.00 | 74 | 1017.5 |
| 20260902023458 | 81 | 202 | 0.0 | 0.0 | 0.00 | 0.00 | 0.00 | 74 | 1017.5 |
| 20260902023359 | 81 | 202 | 0.0 | 0.0 | 0.00 | 0.00 | 0.00 | 73 | 1017.5 |
| 20260902023257 | 81 | 202 | 0.0 | 0.0 | 0.00 | 0.00 | 0.00 | 73 | 1017.5 |
| 20260902023159 | 81 | 202 | 0.0 | 0.0 | 0.00 | 0.00 | 0.00 | 73 | 1017.4 |
| 20260902023059 | 81 | 202 | 0.0 | 0.0 | 0.00 | 0.00 | 0.00 | 73 | 1017.5 |
| 20260902022958 | 81 | 202 | 0.0 | 0.0 | 0.00 | 0.00 | 0.00 | 73 | 1017.5 |
| 20260902022859 | 81 | 202 | 0.0 | 0.0 | 0.00 | 0.00 | 0.00 | 73 | 1017.6 |
| 20260902022759 | 81 | 202 | 0.0 | 0.0 | 0.00 | 0.00 | 0.00 | 73 | 1017.5 |
| 20260902022558 | 81 | 202 | 0.0 | 0.0 | 0.00 | 0.00 | 0.00 | 73 | 1017.5 |
| 20260902022459 | 81 | 202 | 0.0 | 0.0 | 0.00 | 0.00 | 0.00 | 73 | 1017.5 |
| 20260902022358 | 81 | 202 | 0.0 | 0.0 | 0.00 | 0.00 | 0.00 | 73 | 1017.5 |
| 20260902022158 | 81 | 202 | 0.0 | 0.0 | 0.00 | 0.00 | 0.00 | 73 | 1017.6 |
| 20260902022101 | 81 | 202 | 0.0 | 0.0 | 0.00 | 0.00 | 0.00 | 73 | 1017.5 |
| 20260902022002 | 81 | 202 | 0.0 | 0.0 | 0.00 | 0.00 | 0.00 | 73 | 1017.6 |
| 20260902021858 | 82 | 202 | 0.0 | 0.0 | 0.00 | 0.00 | 0.00 | 73 | 1017.5 |
| 20260902021759 | 82 | 202 | 0.0 | 0.0 | 0.00 | 0.00 | 0.00 | 73 | 1017.5 |
| 20260902021558 | 82 | 202 | 0.0 | 0.0 | 0.00 | 0.00 | 0.00 | 73 | 1017.4 |
| 20260902021458 | 82 | 202 | 0.0 | 0.0 | 0.00 | 0.00 | 0.00 | 73 | 1017.5 |
| 20260902021358 | 82 | 202 | 0.0 | 0.0 | 0.00 | 0.00 | 0.00 | 72 | 1017.5 |
| 20260902021100 | 82 | 202 | 0.0 | 0.0 | 0.00 | 0.00 | 0.00 | 73 | 1017.5 |
| 20260902020957 | 82 | 202 | 0.0 | 0.0 | 0.00 | 0.00 | 0.00 | 72 | 1017.5 |
| 20260902020859 | 82 | 202 | 0.0 | 0.0 | 0.00 | 0.00 | 0.00 | 73 | 1017.5 |
| 20260902020800 | 82 | 202 | 0.0 | 0.0 | 0.00 | 0.00 | 0.00 | 72 | 1017.6 |
| 20260902020658 | 82 | 202 | 0.0 | 0.0 | 0.00 | 0.00 | 0.00 | 72 | 1017.5 |
| 20260902020558 | 82 | 202 | 0.0 | 0.0 | 0.00 | 0.00 | 0.00 | 72 | 1017.5 |
| 20260902020458 | 82 | 202 | 0.0 | 0.0 | 0.00 | 0.00 | 0.00 | 72 | 1017.5 |
| 20260902020258 | 82 | 202 | 0.0 | 0.0 | 0.00 | 0.00 | 0.00 | 72 | 1017.5 |
| 20260902020158 | 82 | 202 | 0.0 | 0.0 | 0.00 | 0.00 | 0.00 | 72 | 1017.5 |
| 20260902020100 | 82 | 202 | 0.0 | 0.0 | 0.00 | 0.00 | 0.00 | 72 | 1017.6 |
| 20260902015758 | 82 | 202 | 0.0 | 0.0 | 0.00 | 0.00 | 0.00 | 71 | 1017.6 |
| 20260902015659 | 83 | 202 | 0.0 | 0.0 | 0.00 | 0.00 | 0.00 | 71 | 1017.5 |
| 20260902015557 | 83 | 202 | 0.0 | 0.0 | 0.00 | 0.00 | 0.00 | 71 | 1017.5 |
| 20260902015458 | 83 | 202 | 0.0 | 0.0 | 0.00 | 0.00 | 0.00 | 71 | 1017.5 |
| 20260902015400 | 83 | 202 | 0.0 | 0.0 | 0.00 | 0.00 | 0.00 | 71 | 1017.5 |
| 20260902015158 | 83 | 202 | 0.0 | 0.0 | 0.00 | 0.00 | 0.00 | 71 | 1017.5 |
| 20260902015058 | 83 | 202 | 0.0 | 0.0 | 0.00 | 0.00 | 0.00 | 71 | 1017.5 |
| 20260902014958 | 83 | 202 | 0.0 | 0.0 | 0.00 | 0.00 | 0.00 | 71 | 1017.5 |
| 20260902014859 | 83 | 202 | 0.0 | 0.0 | 0.00 | 0.00 | 0.00 | 70 | 1017.5 |
| 20260902014758 | 83 | 202 | 0.0 | 0.0 | 0.00 | 0.00 | 0.00 | 71 | 1017.5 |
| 20260902014458 | 83 | 202 | 0.0 | 0.0 | 0.00 | 0.00 | 0.00 | 70 | 1017.5 |
| 20260902014400 | 83 | 202 | 0.0 | 0.0 | 0.00 | 0.00 | 0.00 | 71 | 1017.5 |
| 20260902014259 | 83 | 202 | 0.0 | 0.0 | 0.00 | 0.00 | 0.00 | 71 | 1017.5 |
| 20260902014200 | 83 | 202 | 0.0 | 0.0 | 0.00 | 0.00 | 0.00 | 70 | 1017.4 |
| 20260902014100 | 83 | 202 | 0.0 | 0.0 | 0.00 | 0.00 | 0.00 | 70 | 1017.5 |
| 20260902013959 | 83 | 202 | 0.0 | 0.0 | 0.00 | 0.00 | 0.00 | 70 | 1017.4 |
| 20260902013859 | 83 | 202 | 0.0 | 0.0 | 0.00 | 0.00 | 0.00 | 70 | 1017.5 |
| 20260902013758 | 83 | 202 | 0.0 | 0.0 | 0.00 | 0.00 | 0.00 | 70 | 1017.4 |
| 20260902013659 | 83 | 202 | 0.0 | 0.0 | 0.00 | 0.00 | 0.00 | 70 | 1017.4 |
| 20260902013559 | 83 | 202 | 0.0 | 0.0 | 0.00 | 0.00 | 0.00 | 70 | 1017.5 |
| 20260902013459 | 83 | 202 | 0.0 | 0.0 | 0.00 | 0.00 | 0.00 | 70 | 1017.4 |
| 20260902013359 | 83 | 202 | 0.0 | 0.0 | 0.00 | 0.00 | 0.00 | 70 | 1017.4 |
| 20260902013300 | 83 | 202 | 0.0 | 0.0 | 0.00 | 0.00 | 0.00 | 70 | 1017.5 |
| 20260902013059 | 83 | 202 | 0.0 | 0.0 | 0.00 | 0.00 | 0.00 | 69 | 1017.4 |
| 20260902012958 | 83 | 202 | 0.0 | 0.0 | 0.00 | 0.00 | 0.00 | 69 | 1017.5 |
| 20260902012858 | 83 | 193 | 0.0 | 0.0 | 0.00 | 0.00 | 0.00 | 69 | 1017.5 |
| 20260902012759 | 83 | 193 | 0.0 | 0.0 | 0.00 | 0.00 | 0.00 | 69 | 1017.4 |
| 20260902012659 | 83 | 193 | 0.0 | 0.0 | 0.00 | 0.00 | 0.00 | 69 | 1017.4 |
| 20260902012559 | 84 | 193 | 0.0 | 0.0 | 0.00 | 0.00 | 0.00 | 69 | 1017.4 |
| 20260902012501 | 84 | 193 | 0.0 | 0.0 | 0.00 | 0.00 | 0.00 | 69 | 1017.4 |
| 20260902012359 | 84 | 193 | 0.0 | 0.0 | 0.00 | 0.00 | 0.00 | 69 | 1017.3 |
| 20260902012259 | 84 | 193 | 0.0 | 0.0 | 0.00 | 0.00 | 0.00 | 69 | 1017.3 |
| 20260902012158 | 84 | 193 | 0.0 | 0.0 | 0.00 | 0.00 | 0.00 | 69 | 1017.3 |
| 20260902012059 | 84 | 193 | 0.0 | 0.0 | 0.00 | 0.00 | 0.00 | 69 | 1017.3 |
| 20260902011900 | 84 | 193 | 0.0 | 0.0 | 0.00 | 0.00 | 0.00 | 69 | 1017.3 |
| 20260902011759 | 84 | 193 | 0.0 | 0.0 | 0.00 | 0.00 | 0.00 | 69 | 1017.2 |
| 20260902011659 | 84 | 193 | 0.0 | 0.0 | 0.00 | 0.00 | 0.00 | 69 | 1017.3 |
| 20260902011558 | 84 | 193 | 0.0 | 0.0 | 0.00 | 0.00 | 0.00 | 69 | 1017.2 |
| 20260902011458 | 84 | 193 | 0.0 | 0.0 | 0.00 | 0.00 | 0.00 | 69 | 1017.2 |
| 20260902011400 | 84 | 193 | 0.0 | 0.0 | 0.00 | 0.00 | 0.00 | 68 | 1017.1 |
| 20260902011258 | 84 | 193 | 0.0 | 0.0 | 0.00 | 0.00 | 0.00 | 68 | 1017.1 |
| 20260902011158 | 84 | 193 | 0.0 | 0.0 | 0.00 | 0.00 | 0.00 | 68 | 1017.0 |
| 20260902011058 | 84 | 193 | 0.0 | 0.0 | 0.00 | 0.00 | 0.00 | 68 | 1017.0 |
| 20260902010958 | 84 | 193 | 0.0 | 0.0 | 0.00 | 0.00 | 0.00 | 68 | 1017.0 |
| 20260902010901 | 84 | 193 | 0.0 | 0.0 | 0.00 | 0.00 | 0.00 | 68 | 1017.0 |
| 20260902010800 | 84 | 193 | 0.0 | 0.0 | 0.00 | 0.00 | 0.00 | 68 | 1017.0 |
| 20260902010658 | 84 | 193 | 0.0 | 0.0 | 0.00 | 0.00 | 0.00 | 68 | 1016.9 |
| 20260902010559 | 84 | 193 | 0.0 | 0.0 | 0.00 | 0.00 | 0.00 | 68 | 1016.9 |
| 20260902010500 | 84 | 193 | 0.0 | 0.0 | 0.00 | 0.00 | 0.00 | 67 | 1016.9 |
| 20260902010359 | 85 | 193 | 0.0 | 0.0 | 0.00 | 0.00 | 0.00 | 67 | 1016.9 |
| 20260902010258 | 85 | 193 | 0.0 | 0.0 | 0.00 | 0.00 | 0.00 | 67 | 1016.9 |
| 20260902010158 | 85 | 193 | 0.0 | 0.0 | 0.00 | 0.00 | 0.00 | 67 | 1016.9 |
| 20260902010058 | 85 | 193 | 0.0 | 0.0 | 0.00 | 0.00 | 0.00 | 67 | 1016.8 |
| 20260902005958 | 85 | 193 | 0.0 | 0.0 | 0.00 | 0.00 | 0.00 | 67 | 1016.9 |
| 20260902005859 | 85 | 193 | 0.0 | 0.0 | 0.00 | 0.00 | 0.00 | 66 | 1016.8 |
| 20260902005759 | 85 | 193 | 0.0 | 0.0 | 0.00 | 0.00 | 0.00 | 66 | 1016.8 |
| 20260902005559 | 85 | 193 | 0.0 | 0.0 | 0.00 | 0.00 | 0.00 | 66 | 1016.8 |
| 20260902005500 | 85 | 193 | 0.0 | 0.0 | 0.00 | 0.00 | 0.00 | 66 | 1016.8 |
| 20260902005258 | 85 | 193 | 0.0 | 0.0 | 0.00 | 0.00 | 0.00 | 66 | 1016.8 |
| 20260902005058 | 85 | 193 | 0.0 | 0.0 | 0.00 | 0.00 | 0.00 | 65 | 1016.8 |
| 20260902004959 | 85 | 193 | 0.0 | 0.0 | 0.00 | 0.00 | 0.00 | 65 | 1016.7 |
| 20260902004859 | 85 | 193 | 0.0 | 0.0 | 0.00 | 0.00 | 0.00 | 65 | 1016.7 |
| 20260902004803 | 86 | 193 | 0.0 | 0.0 | 0.00 | 0.00 | 0.00 | 65 | 1016.8 |
| 20260902004658 | 86 | 193 | 0.0 | 0.0 | 0.00 | 0.00 | 0.00 | 65 | 1016.7 |
| 20260902004400 | 86 | 193 | 0.0 | 0.0 | 0.00 | 0.00 | 0.00 | 64 | 1016.8 |
| 20260902004259 | 86 | 193 | 0.0 | 0.0 | 0.00 | 0.00 | 0.00 | 64 | 1016.7 |
| 20260902004158 | 86 | 193 | 0.0 | 0.0 | 0.00 | 0.00 | 0.00 | 64 | 1016.8 |
| 20260902004058 | 86 | 193 | 0.0 | 0.0 | 0.00 | 0.00 | 0.00 | 64 | 1016.8 |
| 20260902003959 | 86 | 193 | 0.0 | 0.0 | 0.00 | 0.00 | 0.00 | 64 | 1016.8 |
| 20260902003859 | 86 | 193 | 0.0 | 0.0 | 0.00 | 0.00 | 0.00 | 64 | 1016.7 |
| 20260902003702 | 86 | 193 | 0.0 | 0.0 | 0.00 | 0.00 | 0.00 | 63 | 1016.8 |
| 20260902003559 | 86 | 193 | 0.0 | 0.0 | 0.00 | 0.00 | 0.00 | 64 | 1016.8 |
| 20260902003459 | 86 | 193 | 0.0 | 0.0 | 0.00 | 0.00 | 0.00 | 63 | 1016.8 |
| 20260902003258 | 86 | 193 | 0.0 | 0.0 | 0.00 | 0.00 | 0.00 | 62 | 1016.9 |
| 20260902003100 | 87 | 200 | 0.0 | 0.0 | 0.00 | 0.00 | 0.00 | 63 | 1016.8 |
| 20260902002959 | 87 | 168 | 0.0 | 0.0 | 0.00 | 0.00 | 0.00 | 62 | 1016.8 |
| 20260902002858 | 87 | 168 | 0.0 | 0.0 | 0.00 | 0.00 | 0.00 | 62 | 1016.9 |
| 20260902002759 | 87 | 168 | 0.0 | 0.0 | 0.00 | 0.00 | 0.00 | 62 | 1016.9 |
| 20260902002658 | 87 | 166 | 0.0 | 0.0 | 0.00 | 0.00 | 0.00 | 62 | 1016.9 |
| 20260902002559 | 87 | 166 | 0.0 | 0.0 | 0.00 | 0.00 | 0.00 | 62 | 1016.9 |
| 20260902002458 | 87 | 166 | 0.0 | 0.0 | 0.00 | 0.00 | 0.00 | 62 | 1017.0 |
| 20260902002358 | 87 | 166 | 0.0 | 0.0 | 0.00 | 0.00 | 0.00 | 62 | 1017.0 |
| 20260902002306 | 87 | 166 | 0.0 | 0.0 | 0.00 | 0.00 | 0.00 | 61 | 1017.0 |
| 20260902002201 | 87 | 159 | 0.0 | 0.0 | 0.00 | 0.00 | 0.00 | 61 | 1017.0 |
| 20260902002059 | 87 | 159 | 0.0 | 0.0 | 0.00 | 0.00 | 0.00 | 61 | 1017.0 |
| 20260902001759 | 87 | 154 | 0.0 | 0.0 | 0.00 | 0.00 | 0.00 | 61 | 1017.0 |
| 20260902001600 | 87 | 204 | 0.0 | 0.0 | 0.00 | 0.00 | 0.00 | 61 | 1017.1 |
| 20260902001458 | 88 | 204 | 0.0 | 0.0 | 0.00 | 0.00 | 0.00 | 61 | 1017.1 |
| 20260902001358 | 88 | 204 | 0.0 | 0.0 | 0.00 | 0.00 | 0.00 | 61 | 1017.1 |
| 20260902001158 | 88 | 181 | 0.0 | 0.0 | 0.00 | 0.00 | 0.00 | 61 | 1017.1 |
| 20260902001059 | 88 | 181 | 0.0 | 0.0 | 0.00 | 0.00 | 0.00 | 61 | 1017.1 |
| 20260902000958 | 88 | 178 | 0.0 | 0.0 | 0.00 | 0.00 | 0.00 | 61 | 1017.1 |
| 20260902000858 | 88 | 178 | 0.0 | 0.0 | 0.00 | 0.00 | 0.00 | 60 | 1017.1 |
| 20260902000800 | 88 | 178 | 0.0 | 1.0 | 0.00 | 0.00 | 0.00 | 60 | 1017.1 |
| 20260902000658 | 88 | 228 | 0.0 | 1.0 | 0.00 | 0.00 | 0.00 | 60 | 1017.0 |
| 20260902000459 | 88 | 229 | 0.0 | 1.0 | 0.00 | 0.00 | 0.00 | 60 | 1017.1 |
| 20260902000359 | 88 | 227 | 0.0 | 1.0 | 0.00 | 0.00 | 0.00 | 60 | 1017.1 |
| 20260902000259 | 88 | 227 | 0.0 | 2.0 | 0.00 | 0.00 | 0.00 | 60 | 1017.1 |
| 20260902000000 | 88 | 231 | 0.0 | 3.0 | 0.00 | 0.00 | 0.00 | 60 | 1017.1 |
| 20260901235858 | 88 | 178 | 0.0 | 3.0 | 0.00 | 0.00 | 0.00 | 60 | 1017.2 |
| 20260901235759 | 88 | 179 | 0.0 | 3.0 | 0.00 | 0.00 | 0.00 | 60 | 1017.1 |
| 20260901235658 | 89 | 219 | 0.0 | 4.0 | 0.00 | 0.00 | 0.00 | 60 | 1017.1 |
| 20260901235600 | 89 | 197 | 0.0 | 4.0 | 0.00 | 0.00 | 0.00 | 60 | 1017.2 |
| 20260901235458 | 89 | 190 | 0.0 | 4.0 | 0.00 | 0.00 | 0.00 | 60 | 1017.2 |
| 20260901235359 | 89 | 161 | 0.0 | 4.0 | 0.00 | 0.00 | 0.00 | 60 | 1017.1 |
| 20260901235258 | 89 | 153 | 0.0 | 4.0 | 0.00 | 0.00 | 0.00 | 60 | 1017.1 |
| 20260901235158 | 89 | 151 | 2.0 | 4.0 | 0.00 | 0.00 | 0.00 | 60 | 1017.1 |
| 20260901235058 | 89 | 161 | 2.0 | 4.0 | 0.00 | 0.00 | 0.00 | 60 | 1017.2 |
| 20260901234958 | 89 | 179 | 0.0 | 4.0 | 0.00 | 0.00 | 0.00 | 60 | 1017.1 |
| 20260901234800 | 89 | 169 | 0.0 | 5.0 | 0.00 | 0.00 | 0.00 | 60 | 1017.2 |
| 20260901234658 | 89 | 229 | 0.0 | 5.0 | 0.00 | 0.00 | 0.00 | 60 | 1017.2 |
| 20260901234559 | 89 | 218 | 0.0 | 5.0 | 0.00 | 0.00 | 0.00 | 60 | 1017.2 |
| 20260901234358 | 89 | 187 | 2.0 | 5.0 | 0.00 | 0.00 | 0.00 | 60 | 1017.2 |
| 20260901234201 | 89 | 195 | 0.0 | 5.0 | 0.00 | 0.00 | 0.00 | 60 | 1017.3 |
| 20260901234057 | 89 | 185 | 0.0 | 5.0 | 0.00 | 0.00 | 0.00 | 60 | 1017.3 |
| 20260901234000 | 89 | 169 | 1.0 | 5.0 | 0.00 | 0.00 | 0.00 | 59 | 1017.3 |
| 20260901233858 | 89 | 209 | 0.0 | 2.0 | 0.00 | 0.00 | 0.00 | 60 | 1017.3 |
| 20260901233758 | 89 | 209 | 0.0 | 3.0 | 0.00 | 0.00 | 0.00 | 59 | 1017.2 |
| 20260901233601 | 89 | 176 | 1.0 | 5.0 | 0.00 | 0.00 | 0.00 | 59 | 1017.2 |
| 20260901233459 | 90 | 185 | 0.0 | 5.0 | 0.00 | 0.00 | 0.00 | 59 | 1017.3 |
| 20260901233358 | 90 | 211 | 0.0 | 5.0 | 0.00 | 0.00 | 0.00 | 60 | 1017.2 |
| 20260901233258 | 90 | 171 | 0.0 | 5.0 | 0.00 | 0.00 | 0.00 | 60 | 1017.3 |
| 20260901233159 | 90 | 175 | 0.0 | 5.0 | 0.00 | 0.00 | 0.00 | 59 | 1017.3 |
| 20260901233059 | 90 | 169 | 1.0 | 5.0 | 0.00 | 0.00 | 0.00 | 59 | 1017.3 |
| 20260901232958 | 90 | 175 | 1.0 | 5.0 | 0.00 | 0.00 | 0.00 | 59 | 1017.2 |
| 20260901232902 | 90 | 211 | 5.0 | 5.0 | 0.00 | 0.00 | 0.00 | 59 | 1017.3 |
| 20260901232759 | 90 | 173 | 0.0 | 5.0 | 0.00 | 0.00 | 0.00 | 60 | 1017.3 |
| 20260901232658 | 90 | 178 | 1.0 | 5.0 | 0.00 | 0.00 | 0.00 | 60 | 1017.2 |
| 20260901232558 | 90 | 215 | 1.0 | 5.0 | 0.00 | 0.00 | 0.00 | 60 | 1017.3 |
| 20260901232458 | 90 | 221 | 0.0 | 5.0 | 0.00 | 0.00 | 0.00 | 60 | 1017.2 |
| 20260901232402 | 90 | 198 | 1.0 | 5.0 | 0.00 | 0.00 | 0.00 | 59 | 1017.3 |
| 20260901232158 | 90 | 294 | 1.0 | 5.0 | 0.00 | 0.00 | 0.00 | 59 | 1017.3 |
| 20260901232059 | 90 | 261 | 0.0 | 5.0 | 0.00 | 0.00 | 0.00 | 59 | 1017.3 |
| 20260901231958 | 90 | 173 | 1.0 | 5.0 | 0.00 | 0.00 | 0.00 | 59 | 1017.1 |
| 20260901231858 | 90 | 211 | 0.0 | 4.0 | 0.00 | 0.00 | 0.00 | 59 | 1017.3 |
| 20260901231759 | 90 | 253 | 0.0 | 4.0 | 0.00 | 0.00 | 0.00 | 59 | 1017.3 |
| 20260901231659 | 90 | 188 | 0.0 | 4.0 | 0.00 | 0.00 | 0.00 | 59 | 1017.2 |
| 20260901231558 | 90 | 201 | 0.0 | 5.0 | 0.00 | 0.00 | 0.00 | 59 | 1017.3 |
| 20260901231458 | 90 | 183 | 0.0 | 5.0 | 0.00 | 0.00 | 0.00 | 59 | 1017.3 |
| 20260901231358 | 90 | 195 | 0.0 | 5.0 | 0.00 | 0.00 | 0.00 | 59 | 1017.3 |
| 20260901231300 | 90 | 195 | 0.0 | 6.0 | 0.00 | 0.00 | 0.00 | 59 | 1017.3 |
| 20260901231158 | 90 | 181 | 0.0 | 6.0 | 0.00 | 0.00 | 0.00 | 59 | 1017.3 |
| 20260901231059 | 90 | 229 | 0.0 | 6.0 | 0.00 | 0.00 | 0.00 | 59 | 1017.3 |
| 20260901231002 | 90 | 186 | 0.0 | 6.0 | 0.00 | 0.00 | 0.00 | 58 | 1017.3 |
| 20260901230900 | 90 | 187 | 1.0 | 6.0 | 0.00 | 0.00 | 0.00 | 59 | 1017.2 |
| 20260901230759 | 91 | 9 | 0.0 | 6.0 | 0.00 | 0.00 | 0.00 | 58 | 1017.2 |
| 20260901230700 | 91 | 198 | 1.0 | 6.0 | 0.00 | 0.00 | 0.00 | 58 | 1017.2 |
| 20260901230600 | 91 | 191 | 2.0 | 6.0 | 0.00 | 0.00 | 0.00 | 58 | 1017.2 |
| 20260901230459 | 91 | 204 | 2.0 | 6.0 | 0.00 | 0.00 | 0.00 | 58 | 1017.2 |
| 20260901230358 | 91 | 177 | 1.0 | 6.0 | 0.00 | 0.00 | 0.00 | 58 | 1017.2 |
| 20260901230259 | 91 | 206 | 1.0 | 6.0 | 0.00 | 0.00 | 0.00 | 58 | 1017.3 |
| 20260901230159 | 91 | 201 | 0.0 | 6.0 | 0.00 | 0.00 | 0.00 | 58 | 1017.2 |
| 20260901225900 | 91 | 219 | 2.0 | 4.0 | 0.00 | 0.00 | 0.00 | 59 | 1017.3 |
| 20260901225758 | 91 | 219 | 0.0 | 4.0 | 0.00 | 0.00 | 0.00 | 59 | 1017.2 |
| 20260901225658 | 91 | 281 | 0.0 | 4.0 | 0.00 | 0.00 | 0.00 | 58 | 1017.2 |
| 20260901225558 | 91 | 232 | 0.0 | 4.0 | 0.00 | 0.00 | 0.00 | 58 | 1017.1 |
| 20260901225501 | 91 | 241 | 0.0 | 4.0 | 0.00 | 0.00 | 0.00 | 58 | 1017.1 |
| 20260901225159 | 91 | 190 | 1.0 | 4.0 | 0.00 | 0.00 | 0.00 | 58 | 1017.1 |
| 20260901225059 | 91 | 331 | 1.0 | 4.0 | 0.00 | 0.00 | 0.00 | 58 | 1017.1 |
| 20260901224858 | 91 | 249 | 0.0 | 4.0 | 0.00 | 0.00 | 0.00 | 57 | 1017.2 |
| 20260901224758 | 91 | 265 | 2.0 | 7.0 | 0.00 | 0.00 | 0.00 | 57 | 1017.1 |
| 20260901224659 | 91 | 141 | 0.0 | 7.0 | 0.00 | 0.00 | 0.00 | 57 | 1017.1 |
| 20260901224559 | 91 | 169 | 0.0 | 7.0 | 0.00 | 0.00 | 0.00 | 57 | 1017.2 |
| 20260901224458 | 91 | 169 | 0.0 | 7.0 | 0.00 | 0.00 | 0.00 | 56 | 1017.2 |
| 20260901224259 | 92 | 188 | 4.0 | 7.0 | 0.00 | 0.00 | 0.00 | 55 | 1017.2 |
| 20260901224059 | 92 | 173 | 0.0 | 7.0 | 0.00 | 0.00 | 0.00 | 55 | 1017.1 |
| 20260901223958 | 92 | 169 | 7.0 | 7.0 | 0.00 | 0.00 | 0.00 | 55 | 1017.1 |
| 20260901223858 | 92 | 188 | 1.0 | 4.0 | 0.00 | 0.00 | 0.00 | 55 | 1017.1 |
| 20260901223759 | 92 | 155 | 1.0 | 7.0 | 0.00 | 0.00 | 0.00 | 55 | 1017.2 |
| 20260901223558 | 92 | 251 | 0.0 | 7.0 | 0.00 | 0.00 | 0.00 | 55 | 1017.2 |
| 20260901223458 | 92 | 193 | 1.0 | 7.0 | 0.00 | 0.00 | 0.00 | 56 | 1017.1 |
| 20260901223357 | 92 | 298 | 0.0 | 7.0 | 0.00 | 0.00 | 0.00 | 55 | 1017.1 |
| 20260901223301 | 92 | 304 | 0.0 | 7.0 | 0.00 | 0.00 | 0.00 | 55 | 1017.0 |
| 20260901223158 | 92 | 138 | 0.0 | 8.0 | 0.00 | 0.00 | 0.00 | 55 | 1017.1 |
| 20260901223059 | 92 | 246 | 0.0 | 8.0 | 0.00 | 0.00 | 0.00 | 55 | 1017.0 |
| 20260901222959 | 92 | 273 | 0.0 | 8.0 | 0.00 | 0.00 | 0.00 | 54 | 1017.1 |
| 20260901222858 | 92 | 264 | 0.0 | 8.0 | 0.00 | 0.00 | 0.00 | 55 | 1017.1 |
| 20260901222759 | 92 | 197 | 0.0 | 8.0 | 0.00 | 0.00 | 0.00 | 54 | 1017.0 |
| 20260901222658 | 92 | 182 | 0.0 | 8.0 | 0.00 | 0.00 | 0.00 | 54 | 1017.0 |
| 20260901222358 | 92 | 287 | 0.0 | 8.0 | 0.00 | 0.00 | 0.00 | 54 | 1017.1 |
| 20260901222300 | 92 | 198 | 3.0 | 8.0 | 0.00 | 0.00 | 0.00 | 54 | 1017.0 |
| 20260901222159 | 92 | 277 | 0.0 | 2.0 | 0.00 | 0.00 | 0.00 | 54 | 1017.0 |
| 20260901222058 | 92 | 157 | 0.0 | 2.0 | 0.00 | 0.00 | 0.00 | 53 | 1017.0 |
| 20260901221958 | 93 | 173 | 0.0 | 5.0 | 0.00 | 0.00 | 0.00 | 53 | 1016.9 |
| 20260901221859 | 93 | 174 | 0.0 | 6.0 | 0.00 | 0.00 | 0.00 | 54 | 1017.0 |
| 20260901221758 | 93 | 360 | 0.0 | 6.0 | 0.00 | 0.00 | 0.00 | 53 | 1017.0 |
| 20260901221659 | 93 | 135 | 0.0 | 6.0 | 0.00 | 0.00 | 0.00 | 54 | 1017.0 |
| 20260901221559 | 93 | 295 | 0.0 | 6.0 | 0.00 | 0.00 | 0.00 | 54 | 1017.0 |
| 20260901221500 | 93 | 355 | 0.0 | 6.0 | 0.00 | 0.00 | 0.00 | 54 | 1017.0 |
| 20260901221400 | 93 | 312 | 0.0 | 6.0 | 0.00 | 0.00 | 0.00 | 54 | 1017.1 |
| 20260901221200 | 93 | 193 | 0.0 | 6.0 | 0.00 | 0.00 | 0.00 | 53 | 1017.0 |
| 20260901221058 | 93 | 169 | 0.0 | 6.0 | 0.00 | 0.00 | 0.00 | 52 | 1017.1 |
| 20260901220959 | 93 | 167 | 4.0 | 6.0 | 0.00 | 0.00 | 0.00 | 52 | 1017.0 |
| 20260901220900 | 93 | 178 | 2.0 | 5.0 | 0.00 | 0.00 | 0.00 | 51 | 1017.1 |
| 20260901220658 | 93 | 189 | 2.0 | 5.0 | 0.00 | 0.00 | 0.00 | 51 | 1017.0 |
| 20260901220558 | 93 | 130 | 1.0 | 5.0 | 0.00 | 0.00 | 0.00 | 51 | 1017.1 |
| 20260901220458 | 93 | 285 | 2.0 | 5.0 | 0.00 | 0.00 | 0.00 | 51 | 1017.0 |
| 20260901220358 | 93 | 205 | 1.0 | 5.0 | 0.00 | 0.00 | 0.00 | 51 | 1017.1 |
| 20260901220259 | 94 | 311 | 3.0 | 5.0 | 0.00 | 0.00 | 0.00 | 51 | 1017.1 |
| 20260901220100 | 94 | 239 | 4.0 | 7.0 | 0.00 | 0.00 | 0.00 | 51 | 1017.1 |
| 20260901220001 | 94 | 330 | 0.0 | 7.0 | 0.00 | 0.00 | 0.00 | 53 | 1017.1 |
| 20260901215900 | 94 | 173 | 0.0 | 7.0 | 0.00 | 0.00 | 0.00 | 52 | 1017.0 |
| 20260901215758 | 94 | 105 | 0.0 | 7.0 | 0.00 | 0.00 | 0.00 | 53 | 1017.0 |
| 20260901215659 | 94 | 212 | 0.0 | 7.0 | 0.00 | 0.00 | 0.00 | 53 | 1016.9 |
| 20260901215558 | 94 | 157 | 0.0 | 7.0 | 0.00 | 0.00 | 0.00 | 52 | 1017.1 |
| 20260901215458 | 94 | 178 | 2.0 | 7.0 | 0.00 | 0.00 | 0.00 | 52 | 1017.1 |
| 20260901215358 | 94 | 223 | 1.0 | 7.0 | 0.00 | 0.00 | 0.00 | 52 | 1017.0 |
| 20260901215259 | 94 | 78 | 1.0 | 5.0 | 0.00 | 0.00 | 0.00 | 52 | 1017.0 |
| 20260901215159 | 94 | 274 | 1.0 | 4.0 | 0.00 | 0.00 | 0.00 | 51 | 1017.0 |
| 20260901215059 | 94 | 111 | 0.0 | 4.0 | 0.00 | 0.00 | 0.00 | 52 | 1017.0 |
| 20260901214958 | 94 | 193 | 1.0 | 4.0 | 0.00 | 0.00 | 0.00 | 53 | 1017.1 |
| 20260901214858 | 94 | 194 | 1.0 | 5.0 | 0.00 | 0.00 | 0.00 | 52 | 1017.0 |
| 20260901214759 | 94 | 149 | 0.0 | 5.0 | 0.00 | 0.00 | 0.00 | 52 | 1017.1 |
| 20260901214658 | 94 | 26 | 0.0 | 5.0 | 0.00 | 0.00 | 0.00 | 52 | 1017.1 |
| 20260901214558 | 94 | 199 | 2.0 | 5.0 | 0.00 | 0.00 | 0.00 | 52 | 1017.0 |
| 20260901214458 | 94 | 217 | 2.0 | 5.0 | 0.00 | 0.00 | 0.00 | 52 | 1017.1 |
| 20260901214400 | 94 | 248 | 2.0 | 5.0 | 0.00 | 0.00 | 0.00 | 53 | 1017.0 |
| 20260901214200 | 94 | 92 | 1.0 | 5.0 | 0.00 | 0.00 | 0.00 | 52 | 1017.0 |
| 20260901213958 | 94 | 192 | 1.0 | 5.0 | 0.00 | 0.00 | 0.00 | 51 | 1017.0 |
| 20260901213858 | 94 | 192 | 2.0 | 4.0 | 0.00 | 0.00 | 0.00 | 52 | 1017.0 |
| 20260901213759 | 94 | 225 | 0.0 | 4.0 | 0.00 | 0.00 | 0.00 | 52 | 1017.0 |
| 20260901213658 | 94 | 329 | 0.0 | 6.0 | 0.00 | 0.00 | 0.00 | 52 | 1017.0 |
| 20260901213559 | 94 | 311 | 0.0 | 6.0 | 0.00 | 0.00 | 0.00 | 51 | 1017.0 |
| 20260901213458 | 94 | 325 | 0.0 | 6.0 | 0.00 | 0.00 | 0.00 | 51 | 1017.0 |
| 20260901213359 | 94 | 182 | 0.0 | 6.0 | 0.00 | 0.00 | 0.00 | 50 | 1017.0 |
| 20260901213258 | 95 | 176 | 1.0 | 6.0 | 0.00 | 0.00 | 0.00 | 51 | 1017.0 |
| 20260901213158 | 95 | 162 | 0.0 | 6.0 | 0.00 | 0.00 | 0.00 | 52 | 1017.0 |
| 20260901213059 | 95 | 92 | 0.0 | 8.0 | 0.00 | 0.00 | 0.00 | 51 | 1017.0 |
| 20260901212758 | 95 | 202 | 3.0 | 8.0 | 0.00 | 0.00 | 0.00 | 51 | 1017.0 |
| 20260901212659 | 95 | 120 | 0.0 | 8.0 | 0.00 | 0.00 | 0.00 | 52 | 1017.1 |
| 20260901212558 | 95 | 360 | 0.0 | 8.0 | 0.00 | 0.00 | 0.00 | 53 | 1017.0 |
| 20260901212459 | 95 | 316 | 3.0 | 8.0 | 0.00 | 0.00 | 0.00 | 51 | 1017.0 |
| 20260901212159 | 95 | 235 | 3.0 | 8.0 | 0.00 | 0.00 | 0.00 | 51 | 1017.0 |
| 20260901211859 | 95 | 150 | 0.0 | 6.0 | 0.00 | 0.00 | 0.00 | 52 | 1017.0 |
| 20260901211700 | 95 | 179 | 0.0 | 6.0 | 0.00 | 0.00 | 0.00 | 51 | 1017.1 |
| 20260901211558 | 95 | 155 | 0.0 | 6.0 | 0.00 | 0.00 | 0.00 | 51 | 1017.1 |
| 20260901211458 | 95 | 80 | 0.0 | 6.0 | 0.00 | 0.00 | 0.00 | 50 | 1017.0 |
| 20260901211300 | 95 | 272 | 1.0 | 6.0 | 0.00 | 0.00 | 0.00 | 51 | 1017.1 |
| 20260901211158 | 95 | 312 | 0.0 | 4.0 | 0.00 | 0.00 | 0.00 | 52 | 1017.1 |
| 20260901211059 | 95 | 185 | 0.0 | 4.0 | 0.00 | 0.00 | 0.00 | 50 | 1017.1 |
| 20260901210758 | 96 | 124 | 0.0 | 4.0 | 0.00 | 0.00 | 0.00 | 49 | 1017.1 |
| 20260901210658 | 96 | 163 | 0.0 | 4.0 | 0.00 | 0.00 | 0.00 | 50 | 1017.1 |
| 20260901210559 | 96 | 108 | 0.0 | 4.0 | 0.00 | 0.00 | 0.00 | 50 | 1017.1 |
| 20260901210458 | 96 | 238 | 2.0 | 3.0 | 0.00 | 0.00 | 0.00 | 51 | 1017.1 |
| 20260901210358 | 96 | 248 | 0.0 | 3.0 | 0.00 | 0.00 | 0.00 | 52 | 1017.1 |
| 20260901210258 | 95 | 336 | 0.0 | 3.0 | 0.00 | 0.00 | 0.00 | 51 | 1017.1 |
| 20260901210158 | 95 | 336 | 0.0 | 3.0 | 0.00 | 0.00 | 0.00 | 51 | 1017.2 |
| 20260901210058 | 95 | 292 | 0.0 | 3.0 | 0.00 | 0.00 | 0.00 | 51 | 1017.1 |
| 20260901210003 | 95 | 327 | 0.0 | 3.0 | 0.00 | 0.00 | 0.00 | 51 | 1017.1 |
| 20260901205900 | 95 | 181 | 0.0 | 3.0 | 0.00 | 0.00 | 0.00 | 51 | 1017.3 |
| 20260901205758 | 95 | 160 | 0.0 | 3.0 | 0.00 | 0.00 | 0.00 | 51 | 1017.1 |
| 20260901205658 | 95 | 355 | 1.0 | 3.0 | 0.00 | 0.00 | 0.00 | 51 | 1017.2 |
| 20260901205558 | 95 | 209 | 0.0 | 4.0 | 0.00 | 0.00 | 0.00 | 51 | 1017.3 |
| 20260901205459 | 95 | 222 | 1.0 | 4.0 | 0.00 | 0.00 | 0.00 | 50 | 1017.2 |
| 20260901205358 | 95 | 279 | 1.0 | 4.0 | 0.00 | 0.00 | 0.00 | 51 | 1017.3 |
| 20260901205258 | 95 | 168 | 0.0 | 4.0 | 0.00 | 0.00 | 0.00 | 52 | 1017.2 |
| 20260901205158 | 95 | 163 | 0.0 | 5.0 | 0.00 | 0.00 | 0.00 | 52 | 1017.2 |
| 20260901205059 | 95 | 124 | 2.0 | 5.0 | 0.00 | 0.00 | 0.00 | 51 | 1017.2 |
| 20260901205000 | 95 | 5 | 0.0 | 6.0 | 0.00 | 0.00 | 0.00 | 51 | 1017.3 |
| 20260901204858 | 95 | 309 | 0.0 | 6.0 | 0.00 | 0.00 | 0.00 | 50 | 1017.3 |
| 20260901204759 | 95 | 198 | 2.0 | 6.0 | 0.00 | 0.00 | 0.00 | 50 | 1017.3 |
| 20260901204658 | 95 | 194 | 3.0 | 6.0 | 0.00 | 0.00 | 0.00 | 51 | 1017.3 |
| 20260901204458 | 95 | 308 | 3.0 | 6.0 | 0.00 | 0.00 | 0.00 | 51 | 1017.4 |
| 20260901204359 | 95 | 293 | 1.0 | 6.0 | 0.00 | 0.00 | 0.00 | 50 | 1017.4 |
| 20260901204258 | 95 | 171 | 4.0 | 6.0 | 0.00 | 0.00 | 0.00 | 50 | 1017.4 |
| 20260901204158 | 95 | 178 | 3.0 | 7.0 | 0.00 | 0.00 | 0.00 | 50 | 1017.4 |
| 20260901203958 | 95 | 321 | 1.0 | 7.0 | 0.00 | 0.00 | 0.00 | 52 | 1017.4 |
| 20260901203801 | 95 | 173 | 1.0 | 7.0 | 0.00 | 0.00 | 0.00 | 51 | 1017.4 |
| 20260901203458 | 95 | 183 | 4.0 | 7.0 | 0.00 | 0.00 | 0.00 | 51 | 1017.4 |
| 20260901203400 | 95 | 245 | 0.0 | 7.0 | 0.00 | 0.00 | 0.00 | 49 | 1017.4 |
| 20260901203258 | 95 | 200 | 6.0 | 7.0 | 0.00 | 0.00 | 0.00 | 49 | 1017.5 |
| 20260901203158 | 96 | 175 | 2.0 | 4.0 | 0.00 | 0.00 | 0.00 | 50 | 1017.4 |
| 20260901203058 | 96 | 315 | 1.0 | 4.0 | 0.00 | 0.00 | 0.00 | 49 | 1017.5 |
| 20260901202958 | 96 | 200 | 4.0 | 4.0 | 0.00 | 0.00 | 0.00 | 50 | 1017.5 |
| 20260901202857 | 96 | 141 | 0.0 | 4.0 | 0.00 | 0.00 | 0.00 | 50 | 1017.4 |
| 20260901202759 | 96 | 198 | 0.0 | 4.0 | 0.00 | 0.00 | 0.00 | 51 | 1017.4 |
| 20260901202558 | 96 | 167 | 0.0 | 5.0 | 0.00 | 0.00 | 0.00 | 49 | 1017.4 |
| 20260901202459 | 96 | 128 | 2.0 | 5.0 | 0.00 | 0.00 | 0.00 | 49 | 1017.5 |
| 20260901202358 | 96 | 186 | 1.0 | 7.0 | 0.00 | 0.00 | 0.00 | 48 | 1017.4 |
| 20260901202059 | 96 | 321 | 0.0 | 7.0 | 0.00 | 0.00 | 0.00 | 49 | 1017.4 |
| 20260901202000 | 96 | 309 | 1.0 | 7.0 | 0.00 | 0.00 | 0.00 | 48 | 1017.5 |
| 20260901201858 | 96 | 167 | 4.0 | 7.0 | 0.00 | 0.00 | 0.00 | 48 | 1017.4 |
| 20260901201758 | 96 | 29 | 2.0 | 7.0 | 0.00 | 0.00 | 0.00 | 49 | 1017.4 |
| 20260901201659 | 96 | 242 | 1.0 | 7.0 | 0.00 | 0.00 | 0.00 | 47 | 1017.3 |
| 20260901201559 | 95 | 214 | 0.0 | 7.0 | 0.00 | 0.00 | 0.00 | 48 | 1017.4 |
| 20260901201500 | 96 | 167 | 4.0 | 5.0 | 0.00 | 0.00 | 0.00 | 48 | 1017.3 |
| 20260901201400 | 96 | 202 | 1.0 | 5.0 | 0.00 | 0.00 | 0.00 | 48 | 1017.4 |
| 20260901201258 | 95 | 296 | 2.0 | 5.0 | 0.00 | 0.00 | 0.00 | 48 | 1017.3 |
| 20260901201159 | 95 | 193 | 1.0 | 5.0 | 0.00 | 0.00 | 0.00 | 48 | 1017.3 |
| 20260901200858 | 95 | 46 | 0.0 | 5.0 | 0.00 | 0.00 | 0.00 | 49 | 1017.3 |
| 20260901200758 | 95 | 219 | 2.0 | 5.0 | 0.00 | 0.00 | 0.00 | 46 | 1017.3 |
| 20260901200700 | 96 | 251 | 3.0 | 6.0 | 0.00 | 0.00 | 0.00 | 46 | 1017.4 |
| 20260901200558 | 96 | 173 | 3.0 | 4.0 | 0.00 | 0.00 | 0.00 | 47 | 1017.3 |
| 20260901200459 | 96 | 199 | 4.0 | 4.0 | 0.00 | 0.00 | 0.00 | 47 | 1017.3 |
| 20260901200358 | 96 | 287 | 1.0 | 4.0 | 0.00 | 0.00 | 0.00 | 47 | 1017.2 |
| 20260901200258 | 96 | 84 | 0.0 | 4.0 | 0.00 | 0.00 | 0.00 | 48 | 1017.4 |
| 20260901200201 | 96 | 138 | 2.0 | 4.0 | 0.00 | 0.00 | 0.00 | 48 | 1017.4 |
| 20260901200100 | 96 | 269 | 1.0 | 4.0 | 0.00 | 0.00 | 0.00 | 49 | 1017.3 |
| 20260901200003 | 96 | 214 | 4.0 | 4.0 | 0.00 | 0.00 | 0.00 | 50 | 1017.3 |
| 20260901195859 | 96 | 241 | 1.0 | 3.0 | 0.00 | 0.00 | 0.00 | 51 | 1017.3 |
| 20260901195758 | 95 | 312 | 1.0 | 3.0 | 0.00 | 0.00 | 0.00 | 51 | 1017.3 |
| 20260901195658 | 95 | 311 | 0.0 | 3.0 | 0.00 | 0.00 | 0.00 | 51 | 1017.3 |
| 20260901195600 | 95 | 341 | 0.0 | 3.0 | 0.00 | 0.00 | 0.00 | 49 | 1017.3 |
| 20260901195500 | 95 | 317 | 2.0 | 3.0 | 0.00 | 0.00 | 0.00 | 50 | 1017.3 |
| 20260901195401 | 95 | 341 | 0.0 | 3.0 | 0.00 | 0.00 | 0.00 | 50 | 1017.3 |
| 20260901195259 | 95 | 27 | 1.0 | 3.0 | 0.00 | 0.00 | 0.00 | 51 | 1017.3 |
| 20260901195159 | 95 | 97 | 0.0 | 3.0 | 0.00 | 0.00 | 0.00 | 50 | 1017.3 |
| 20260901195059 | 95 | 182 | 0.0 | 3.0 | 0.00 | 0.00 | 0.00 | 50 | 1017.3 |
| 20260901194659 | 95 | 157 | 2.0 | 4.0 | 0.00 | 0.00 | 0.00 | 48 | 1017.3 |
| 20260901194558 | 95 | 158 | 0.0 | 4.0 | 0.00 | 0.00 | 0.00 | 48 | 1017.4 |
| 20260901194359 | 95 | 252 | 0.0 | 9.0 | 0.00 | 0.00 | 0.00 | 49 | 1017.4 |
| 20260901194258 | 95 | 278 | 0.0 | 9.0 | 0.00 | 0.00 | 0.00 | 49 | 1017.4 |
| 20260901194200 | 95 | 152 | 0.0 | 9.0 | 0.00 | 0.00 | 0.00 | 49 | 1017.5 |
| 20260901194058 | 95 | 328 | 1.0 | 9.0 | 0.00 | 0.00 | 0.00 | 50 | 1017.5 |
| 20260901193959 | 95 | 98 | 1.0 | 9.0 | 0.00 | 0.00 | 0.00 | 50 | 1017.5 |
| 20260901193859 | 95 | 343 | 2.0 | 9.0 | 0.00 | 0.00 | 0.00 | 49 | 1017.4 |
| 20260901193758 | 95 | 299 | 2.0 | 9.0 | 0.00 | 0.00 | 0.00 | 49 | 1017.5 |
| 20260901193658 | 95 | 204 | 0.0 | 9.0 | 0.00 | 0.00 | 0.00 | 51 | 1017.4 |
| 20260901193558 | 95 | 244 | 0.0 | 9.0 | 0.00 | 0.00 | 0.00 | 50 | 1017.4 |
| 20260901193459 | 95 | 244 | 0.0 | 9.0 | 0.00 | 0.00 | 0.00 | 49 | 1017.5 |
| 20260901193358 | 95 | 276 | 4.0 | 9.0 | 0.00 | 0.00 | 0.00 | 49 | 1017.5 |
| 20260901193259 | 95 | 205 | 0.0 | 8.0 | 0.00 | 0.00 | 0.00 | 48 | 1017.5 |
| 20260901193200 | 95 | 248 | 0.0 | 8.0 | 0.00 | 0.00 | 0.00 | 49 | 1017.5 |
| 20260901193059 | 95 | 156 | 2.0 | 8.0 | 0.00 | 0.00 | 0.00 | 49 | 1017.5 |
| 20260901192859 | 95 | 153 | 3.0 | 8.0 | 0.00 | 0.00 | 0.00 | 49 | 1017.5 |
| 20260901192759 | 95 | 172 | 3.0 | 7.0 | 0.00 | 0.00 | 0.00 | 49 | 1017.6 |
| 20260901192558 | 95 | 327 | 0.0 | 7.0 | 0.00 | 0.00 | 0.00 | 50 | 1017.6 |
| 20260901192500 | 95 | 78 | 0.0 | 8.0 | 0.00 | 0.00 | 0.00 | 51 | 1017.5 |
| 20260901192358 | 95 | 313 | 0.0 | 8.0 | 0.00 | 0.00 | 0.00 | 51 | 1017.6 |
| 20260901192259 | 95 | 298 | 0.0 | 8.0 | 0.00 | 0.00 | 0.00 | 49 | 1017.5 |
| 20260901192200 | 95 | 184 | 1.0 | 8.0 | 0.00 | 0.00 | 0.00 | 48 | 1017.6 |
| 20260901192058 | 95 | 181 | 3.0 | 8.0 | 0.00 | 0.00 | 0.00 | 50 | 1017.7 |
| 20260901191958 | 95 | 278 | 3.0 | 8.0 | 0.00 | 0.00 | 0.00 | 51 | 1017.6 |
| 20260901191858 | 95 | 238 | 0.0 | 8.0 | 0.00 | 0.00 | 0.00 | 52 | 1017.6 |
| 20260901191759 | 95 | 192 | 0.0 | 8.0 | 0.00 | 0.00 | 0.00 | 52 | 1017.6 |
| 20260901191659 | 95 | 279 | 2.0 | 8.0 | 0.00 | 0.00 | 0.00 | 51 | 1017.7 |
| 20260901191558 | 95 | 292 | 0.0 | 5.0 | 0.00 | 0.00 | 0.00 | 52 | 1017.7 |
| 20260901191358 | 95 | 5 | 0.0 | 5.0 | 0.00 | 0.00 | 0.00 | 51 | 1017.7 |
| 20260901191258 | 95 | 209 | 0.0 | 5.0 | 0.00 | 0.00 | 0.00 | 50 | 1017.7 |
| 20260901191158 | 95 | 215 | 0.0 | 5.0 | 0.00 | 0.00 | 0.00 | 52 | 1017.8 |
| 20260901191059 | 94 | 250 | 0.0 | 5.0 | 0.00 | 0.00 | 0.00 | 52 | 1017.8 |
| 20260901190959 | 94 | 167 | 1.0 | 4.0 | 0.00 | 0.00 | 0.00 | 54 | 1017.8 |
| 20260901190858 | 94 | 234 | 2.0 | 4.0 | 0.00 | 0.00 | 0.00 | 52 | 1017.8 |
| 20260901190659 | 94 | 329 | 2.0 | 6.0 | 0.00 | 0.00 | 0.00 | 53 | 1017.8 |
| 20260901190559 | 94 | 335 | 2.0 | 6.0 | 0.00 | 0.00 | 0.00 | 52 | 1017.9 |
| 20260901190458 | 94 | 217 | 1.0 | 6.0 | 0.00 | 0.00 | 0.00 | 53 | 1017.9 |
| 20260901190358 | 94 | 176 | 1.0 | 6.0 | 0.00 | 0.00 | 0.00 | 53 | 1017.9 |
| 20260901190259 | 95 | 192 | 0.0 | 6.0 | 0.00 | 0.00 | 0.00 | 53 | 1017.9 |
| 20260901190159 | 94 | 190 | 0.0 | 6.0 | 0.00 | 0.00 | 0.00 | 53 | 1017.9 |
| 20260901190058 | 95 | 266 | 2.0 | 6.0 | 0.00 | 0.00 | 0.00 | 52 | 1017.9 |
| 20260901185900 | 95 | 175 | 1.0 | 6.0 | 0.00 | 0.00 | 0.00 | 51 | 1017.9 |
| 20260901185759 | 95 | 215 | 1.0 | 5.0 | 0.00 | 0.00 | 0.00 | 53 | 1017.9 |
| 20260901185700 | 95 | 213 | 2.0 | 5.0 | 0.00 | 0.00 | 0.00 | 52 | 1017.9 |
| 20260901185358 | 94 | 184 | 2.0 | 3.0 | 0.00 | 0.00 | 0.00 | 53 | 1018.0 |
| 20260901185259 | 94 | 207 | 1.0 | 3.0 | 0.00 | 0.00 | 0.00 | 53 | 1018.0 |
| 20260901185200 | 94 | 344 | 2.0 | 3.0 | 0.00 | 0.00 | 0.00 | 52 | 1018.1 |
| 20260901185100 | 94 | 346 | 1.0 | 3.0 | 0.00 | 0.00 | 0.00 | 53 | 1018.1 |
| 20260901184958 | 94 | 343 | 2.0 | 6.0 | 0.00 | 0.00 | 0.00 | 52 | 1018.1 |
| 20260901184858 | 94 | 327 | 1.0 | 6.0 | 0.00 | 0.00 | 0.00 | 52 | 1018.0 |
| 20260901184758 | 94 | 5 | 1.0 | 6.0 | 0.00 | 0.00 | 0.00 | 51 | 1018.1 |
| 20260901184658 | 94 | 140 | 0.0 | 6.0 | 0.00 | 0.00 | 0.00 | 50 | 1018.2 |
| 20260901184600 | 94 | 348 | 0.0 | 6.0 | 0.00 | 0.00 | 0.00 | 54 | 1018.2 |
| 20260901184258 | 94 | 109 | 0.0 | 6.0 | 0.00 | 0.00 | 0.00 | 53 | 1018.3 |
| 20260901184159 | 94 | 198 | 3.0 | 6.0 | 0.00 | 0.00 | 0.00 | 53 | 1018.4 |
| 20260901184058 | 94 | 210 | 3.0 | 6.0 | 0.00 | 0.00 | 0.00 | 53 | 1018.3 |
| 20260901183958 | 94 | 228 | 2.0 | 6.0 | 0.00 | 0.00 | 0.00 | 54 | 1018.3 |
| 20260901183758 | 94 | 46 | 1.0 | 6.0 | 0.00 | 0.00 | 0.00 | 54 | 1018.2 |
| 20260901183659 | 94 | 286 | 0.0 | 6.0 | 0.00 | 0.00 | 0.00 | 54 | 1018.2 |
| 20260901183559 | 94 | 360 | 1.0 | 6.0 | 0.00 | 0.00 | 0.00 | 52 | 1018.2 |
| 20260901183500 | 94 | 178 | 1.0 | 6.0 | 0.00 | 0.00 | 0.00 | 53 | 1018.3 |
| 20260901183301 | 94 | 175 | 2.0 | 4.0 | 0.00 | 0.00 | 0.00 | 53 | 1018.2 |
| 20260901183158 | 94 | 219 | 2.0 | 4.0 | 0.00 | 0.00 | 0.00 | 53 | 1018.3 |
| 20260901183100 | 94 | 147 | 1.0 | 4.0 | 0.00 | 0.00 | 0.00 | 53 | 1018.3 |
| 20260901182959 | 94 | 51 | 2.0 | 4.0 | 0.00 | 0.00 | 0.00 | 57 | 1018.3 |
| 20260901182800 | 93 | 294 | 1.0 | 4.0 | 0.00 | 0.00 | 0.00 | 58 | 1018.4 |
| 20260901182658 | 93 | 159 | 1.0 | 4.0 | 0.00 | 0.00 | 0.00 | 56 | 1018.3 |
| 20260901182559 | 93 | 115 | 2.0 | 5.0 | 0.00 | 0.00 | 0.00 | 56 | 1018.3 |
| 20260901182459 | 93 | 223 | 0.0 | 4.0 | 0.00 | 0.00 | 0.00 | 56 | 1018.3 |
| 20260901182359 | 93 | 209 | 0.0 | 4.0 | 0.00 | 0.00 | 0.00 | 57 | 1018.4 |
| 20260901182159 | 93 | 138 | 0.0 | 6.0 | 0.00 | 0.00 | 0.00 | 57 | 1018.4 |
| 20260901182100 | 93 | 165 | 1.0 | 6.0 | 0.00 | 0.00 | 0.00 | 57 | 1018.4 |
| 20260901181959 | 93 | 278 | 1.0 | 6.0 | 0.00 | 0.00 | 0.00 | 55 | 1018.5 |
| 20260901181858 | 93 | 292 | 2.0 | 6.0 | 0.00 | 0.00 | 0.00 | 56 | 1018.4 |
| 20260901181758 | 93 | 271 | 2.0 | 6.0 | 0.00 | 0.00 | 0.00 | 55 | 1018.4 |
| 20260901181658 | 93 | 325 | 2.0 | 6.0 | 0.00 | 0.00 | 0.00 | 57 | 1018.4 |
| 20260901181558 | 93 | 226 | 2.0 | 6.0 | 0.00 | 0.00 | 0.00 | 55 | 1018.4 |
| 20260901181459 | 92 | 162 | 6.0 | 6.0 | 0.00 | 0.00 | 0.00 | 58 | 1018.4 |
| 20260901181358 | 92 | 175 | 1.0 | 6.0 | 0.00 | 0.00 | 0.00 | 58 | 1018.4 |
| 20260901181259 | 92 | 305 | 3.0 | 7.0 | 0.00 | 0.00 | 0.00 | 58 | 1018.5 |
| 20260901181200 | 92 | 327 | 1.0 | 8.0 | 0.00 | 0.00 | 0.00 | 57 | 1018.4 |
| 20260901181059 | 92 | 194 | 0.0 | 8.0 | 0.00 | 0.00 | 0.00 | 60 | 1018.4 |
| 20260901180959 | 92 | 205 | 1.0 | 8.0 | 0.00 | 0.00 | 0.00 | 57 | 1018.4 |
| 20260901180858 | 92 | 107 | 0.0 | 8.0 | 0.00 | 0.00 | 0.00 | 57 | 1018.4 |
| 20260901180800 | 92 | 184 | 4.0 | 8.0 | 0.00 | 0.00 | 0.00 | 57 | 1018.4 |
| 20260901180659 | 92 | 173 | 1.0 | 8.0 | 0.00 | 0.00 | 0.00 | 56 | 1018.5 |
| 20260901180558 | 92 | 155 | 7.0 | 8.0 | 0.00 | 0.00 | 0.00 | 56 | 1018.5 |
| 20260901180458 | 92 | 158 | 3.0 | 8.0 | 0.00 | 0.00 | 0.00 | 56 | 1018.5 |
| 20260901180358 | 93 | 185 | 4.0 | 8.0 | 0.00 | 0.00 | 0.00 | 57 | 1018.4 |
| 20260901180258 | 93 | 207 | 3.0 | 7.0 | 0.00 | 0.00 | 0.00 | 56 | 1018.5 |
| 20260901180158 | 93 | 211 | 3.0 | 7.0 | 0.00 | 0.00 | 0.00 | 57 | 1018.5 |
| 20260901180057 | 92 | 355 | 2.0 | 7.0 | 0.00 | 0.00 | 0.00 | 57 | 1018.4 |
| 20260901180000 | 92 | 219 | 3.0 | 7.0 | 0.00 | 0.00 | 0.00 | 57 | 1018.4 |
| 20260901175859 | 92 | 200 | 1.0 | 7.0 | 0.00 | 0.00 | 0.00 | 58 | 1018.4 |
| 20260901175759 | 92 | 113 | 2.0 | 7.0 | 0.00 | 0.00 | 0.00 | 56 | 1018.4 |
| 20260901175659 | 92 | 294 | 1.0 | 7.0 | 0.00 | 0.00 | 0.00 | 56 | 1018.4 |
| 20260901175559 | 92 | 279 | 3.0 | 6.0 | 0.00 | 0.00 | 0.00 | 57 | 1018.4 |
| 20260901175458 | 92 | 189 | 0.0 | 6.0 | 0.00 | 0.00 | 0.00 | 57 | 1018.4 |
| 20260901175359 | 92 | 160 | 0.0 | 6.0 | 0.00 | 0.00 | 0.00 | 59 | 1018.5 |
| 20260901175258 | 92 | 165 | 0.0 | 8.0 | 0.00 | 0.00 | 0.00 | 58 | 1018.5 |
| 20260901175159 | 92 | 171 | 1.0 | 9.0 | 0.00 | 0.00 | 0.00 | 59 | 1018.5 |
| 20260901175059 | 92 | 146 | 2.0 | 9.0 | 0.00 | 0.00 | 0.00 | 58 | 1018.5 |
| 20260901174958 | 92 | 159 | 0.0 | 9.0 | 0.00 | 0.00 | 0.00 | 57 | 1018.5 |
| 20260901174858 | 92 | 182 | 1.0 | 9.0 | 0.00 | 0.00 | 0.00 | 57 | 1018.6 |
| 20260901174759 | 92 | 137 | 2.0 | 9.0 | 0.00 | 0.00 | 0.00 | 56 | 1018.6 |
| 20260901174559 | 92 | 154 | 2.0 | 9.0 | 0.00 | 0.00 | 0.00 | 57 | 1018.6 |
| 20260901174458 | 92 | 188 | 4.0 | 9.0 | 0.00 | 0.00 | 0.00 | 55 | 1018.5 |
| 20260901174359 | 92 | 233 | 2.0 | 9.0 | 0.00 | 0.00 | 0.00 | 56 | 1018.6 |
| 20260901174300 | 92 | 138 | 2.0 | 4.0 | 0.00 | 0.00 | 0.00 | 58 | 1018.6 |
| 20260901174202 | 92 | 313 | 2.0 | 4.0 | 0.00 | 0.00 | 0.00 | 54 | 1018.5 |
| 20260901174059 | 92 | 57 | 2.0 | 4.0 | 0.00 | 0.00 | 0.00 | 55 | 1018.5 |
| 20260901173959 | 92 | 277 | 1.0 | 4.0 | 0.00 | 0.00 | 0.00 | 55 | 1018.5 |
| 20260901173859 | 92 | 217 | 1.0 | 4.0 | 0.00 | 0.00 | 0.00 | 55 | 1018.7 |
| 20260901173658 | 92 | 276 | 2.0 | 4.0 | 0.00 | 0.00 | 0.00 | 54 | 1018.6 |
| 20260901173559 | 92 | 117 | 1.0 | 4.0 | 0.00 | 0.00 | 0.00 | 56 | 1018.6 |
| 20260901173458 | 92 | 177 | 2.0 | 4.0 | 0.00 | 0.00 | 0.00 | 54 | 1018.7 |
| 20260901173401 | 92 | 5 | 3.0 | 6.0 | 0.00 | 0.00 | 0.00 | 55 | 1018.6 |
| 20260901173158 | 92 | 175 | 2.0 | 6.0 | 0.00 | 0.00 | 0.00 | 54 | 1018.7 |
| 20260901173058 | 92 | 324 | 1.0 | 6.0 | 0.00 | 0.00 | 0.00 | 57 | 1018.6 |
| 20260901172758 | 92 | 294 | 0.0 | 6.0 | 0.00 | 0.00 | 0.00 | 55 | 1018.7 |
| 20260901172659 | 91 | 153 | 0.0 | 6.0 | 0.00 | 0.00 | 0.00 | 54 | 1018.7 |
| 20260901172559 | 92 | 226 | 4.0 | 7.0 | 0.00 | 0.00 | 0.00 | 55 | 1018.7 |
| 20260901172458 | 92 | 175 | 7.0 | 7.0 | 0.00 | 0.00 | 0.00 | 55 | 1018.7 |
| 20260901172358 | 92 | 191 | 2.0 | 6.0 | 0.00 | 0.00 | 0.00 | 56 | 1018.7 |
| 20260901172258 | 92 | 163 | 2.0 | 6.0 | 0.00 | 0.00 | 0.00 | 55 | 1018.7 |
| 20260901172159 | 92 | 181 | 6.0 | 7.0 | 0.00 | 0.00 | 0.00 | 54 | 1018.7 |
| 20260901172059 | 92 | 263 | 0.0 | 6.0 | 0.00 | 0.00 | 0.00 | 54 | 1018.7 |
| 20260901171900 | 92 | 200 | 3.0 | 3.0 | 0.00 | 0.00 | 0.00 | 55 | 1018.7 |
| 20260901171800 | 92 | 161 | 0.0 | 3.0 | 0.00 | 0.00 | 0.00 | 57 | 1018.7 |
| 20260901171658 | 91 | 190 | 0.0 | 3.0 | 0.00 | 0.00 | 0.00 | 56 | 1018.7 |
| 20260901171459 | 91 | 229 | 0.0 | 8.0 | 0.00 | 0.00 | 0.00 | 55 | 1018.8 |
| 20260901171359 | 91 | 248 | 0.0 | 8.0 | 0.00 | 0.00 | 0.00 | 56 | 1018.8 |
| 20260901171258 | 91 | 181 | 0.0 | 8.0 | 0.00 | 0.00 | 0.00 | 58 | 1018.8 |
| 20260901171158 | 91 | 161 | 0.0 | 8.0 | 0.00 | 0.00 | 0.00 | 60 | 1018.8 |
| 20260901171058 | 91 | 69 | 0.0 | 8.0 | 0.00 | 0.00 | 0.00 | 57 | 1018.8 |
| 20260901170901 | 91 | 46 | 0.0 | 8.0 | 0.00 | 0.00 | 0.00 | 57 | 1018.7 |
| 20260901170759 | 91 | 164 | 0.0 | 8.0 | 0.00 | 0.00 | 0.00 | 56 | 1018.8 |
| 20260901170658 | 91 | 182 | 5.0 | 8.0 | 0.00 | 0.00 | 0.00 | 55 | 1018.8 |
| 20260901170559 | 91 | 190 | 2.0 | 8.0 | 0.00 | 0.00 | 0.00 | 57 | 1018.8 |
| 20260901170459 | 91 | 189 | 4.0 | 8.0 | 0.00 | 0.00 | 0.00 | 57 | 1018.8 |
| 20260901170358 | 91 | 180 | 1.0 | 8.0 | 0.00 | 0.00 | 0.00 | 56 | 1018.8 |
| 20260901170258 | 90 | 355 | 0.0 | 8.0 | 0.00 | 0.00 | 0.00 | 56 | 1018.8 |
| 20260901170200 | 90 | 161 | 4.0 | 8.0 | 0.00 | 0.00 | 0.00 | 55 | 1018.7 |
| 20260901165957 | 90 | 196 | 0.0 | 7.0 | 0.00 | 0.00 | 0.00 | 57 | 1018.7 |
| 20260901165857 | 90 | 165 | 0.0 | 8.0 | 0.00 | 0.00 | 0.00 | 57 | 1018.8 |
| 20260901165758 | 90 | 136 | 3.0 | 8.0 | 0.00 | 0.00 | 0.00 | 57 | 1018.9 |
| 20260901165658 | 90 | 292 | 7.0 | 8.0 | 0.00 | 0.00 | 0.00 | 56 | 1018.8 |
| 20260901165558 | 90 | 311 | 2.0 | 8.0 | 0.00 | 0.00 | 0.00 | 56 | 1018.9 |
| 20260901165458 | 90 | 133 | 2.0 | 8.0 | 0.00 | 0.00 | 0.00 | 56 | 1018.8 |
| 20260901165358 | 90 | 161 | 5.0 | 8.0 | 0.00 | 0.00 | 0.00 | 55 | 1018.9 |
| 20260901165256 | 90 | 200 | 5.0 | 8.0 | 0.00 | 0.00 | 0.00 | 55 | 1018.9 |
| 20260901165157 | 90 | 292 | 2.0 | 8.0 | 0.00 | 0.00 | 0.00 | 56 | 1018.8 |
| 20260901165057 | 90 | 152 | 5.0 | 8.0 | 0.00 | 0.00 | 0.00 | 56 | 1018.8 |
| 20260901164957 | 90 | 135 | 3.0 | 8.0 | 0.00 | 0.00 | 0.00 | 57 | 1018.9 |
| 20260901164757 | 90 | 309 | 3.0 | 8.0 | 0.00 | 0.00 | 0.00 | 56 | 1018.9 |
| 20260901164557 | 90 | 160 | 0.0 | 5.0 | 0.00 | 0.00 | 0.00 | 56 | 1018.9 |
| 20260901164459 | 90 | 24 | 2.0 | 5.0 | 0.00 | 0.00 | 0.00 | 56 | 1018.9 |
| 20260901164400 | 90 | 253 | 4.0 | 7.0 | 0.00 | 0.00 | 0.00 | 57 | 1018.9 |
| 20260901164257 | 90 | 201 | 0.0 | 7.0 | 0.00 | 0.00 | 0.00 | 57 | 1018.9 |
| 20260901164158 | 90 | 205 | 2.0 | 7.0 | 0.00 | 0.00 | 0.00 | 58 | 1019.0 |
| 20260901164059 | 90 | 81 | 2.0 | 7.0 | 0.00 | 0.00 | 0.00 | 57 | 1018.9 |
| 20260901163958 | 90 | 102 | 2.0 | 7.0 | 0.00 | 0.00 | 0.00 | 56 | 1019.0 |
| 20260901163859 | 90 | 170 | 4.0 | 7.0 | 0.00 | 0.00 | 0.00 | 57 | 1018.9 |
| 20260901163657 | 90 | 112 | 1.0 | 7.0 | 0.00 | 0.00 | 0.00 | 57 | 1018.9 |
| 20260901163557 | 90 | 188 | 3.0 | 8.0 | 0.00 | 0.00 | 0.00 | 57 | 1019.0 |
| 20260901163459 | 90 | 177 | 0.0 | 8.0 | 0.00 | 0.00 | 0.00 | 58 | 1018.9 |
| 20260901163357 | 90 | 287 | 2.0 | 8.0 | 0.00 | 0.00 | 0.00 | 58 | 1019.0 |
| 20260901163258 | 90 | 146 | 3.0 | 8.0 | 0.00 | 0.00 | 0.00 | 57 | 1019.0 |
| 20260901163157 | 90 | 30 | 0.0 | 8.0 | 0.00 | 0.00 | 0.00 | 58 | 1019.1 |
| 20260901163058 | 90 | 205 | 5.0 | 8.0 | 0.00 | 0.00 | 0.00 | 58 | 1019.1 |
| 20260901162957 | 90 | 190 | 1.0 | 8.0 | 0.00 | 0.00 | 0.00 | 58 | 1019.0 |
| 20260901162758 | 90 | 200 | 2.0 | 8.0 | 0.00 | 0.00 | 0.00 | 56 | 1019.1 |
| 20260901162558 | 90 | 196 | 1.0 | 5.0 | 0.00 | 0.00 | 0.00 | 57 | 1018.9 |
| 20260901162458 | 90 | 187 | 4.0 | 5.0 | 0.00 | 0.00 | 0.00 | 58 | 1019.0 |
| 20260901162357 | 90 | 308 | 1.0 | 5.0 | 0.00 | 0.00 | 0.00 | 58 | 1019.0 |
| 20260901162259 | 90 | 18 | 2.0 | 7.0 | 0.00 | 0.00 | 0.00 | 58 | 1019.0 |
| 20260901162158 | 90 | 298 | 2.0 | 7.0 | 0.00 | 0.00 | 0.00 | 59 | 1019.0 |
| 20260901161957 | 89 | 150 | 1.0 | 7.0 | 0.00 | 0.00 | 0.00 | 58 | 1019.1 |
| 20260901161901 | 89 | 190 | 3.0 | 8.0 | 0.00 | 0.00 | 0.00 | 58 | 1019.1 |
| 20260901161758 | 89 | 195 | 1.0 | 8.0 | 0.00 | 0.00 | 0.00 | 58 | 1019.0 |
| 20260901161657 | 89 | 184 | 1.0 | 8.0 | 0.00 | 0.00 | 0.00 | 59 | 1019.0 |
| 20260901161557 | 89 | 173 | 2.0 | 9.0 | 0.00 | 0.00 | 0.00 | 58 | 1019.0 |
| 20260901161457 | 89 | 186 | 4.0 | 9.0 | 0.00 | 0.00 | 0.00 | 58 | 1019.0 |
| 20260901161258 | 89 | 45 | 1.0 | 9.0 | 0.00 | 0.00 | 0.00 | 59 | 1019.0 |
| 20260901161057 | 89 | 26 | 1.0 | 9.0 | 0.00 | 0.00 | 0.00 | 58 | 1019.0 |
| 20260901160959 | 89 | 192 | 4.0 | 9.0 | 0.00 | 0.00 | 0.00 | 58 | 1019.0 |
| 20260901160857 | 89 | 123 | 2.0 | 9.0 | 0.00 | 0.00 | 0.00 | 58 | 1019.0 |
| 20260901160757 | 89 | 284 | 3.0 | 9.0 | 0.00 | 0.00 | 0.00 | 58 | 1019.0 |
| 20260901160659 | 89 | 181 | 5.0 | 9.0 | 0.00 | 0.00 | 0.00 | 58 | 1019.0 |
| 20260901160558 | 89 | 227 | 5.0 | 9.0 | 0.00 | 0.00 | 0.00 | 58 | 1019.0 |
| 20260901160457 | 89 | 191 | 3.0 | 8.0 | 0.00 | 0.00 | 0.00 | 59 | 1019.0 |
| 20260901160357 | 89 | 181 | 3.0 | 8.0 | 0.00 | 0.00 | 0.00 | 60 | 1019.0 |
| 20260901160157 | 89 | 263 | 1.0 | 8.0 | 0.00 | 0.00 | 0.00 | 60 | 1019.1 |
| 20260901160000 | 89 | 296 | 2.0 | 8.0 | 0.00 | 0.00 | 0.00 | 59 | 1019.1 |
| 20260901155858 | 89 | 170 | 1.0 | 6.0 | 0.00 | 0.00 | 0.00 | 58 | 1019.1 |
| 20260901155759 | 89 | 237 | 4.0 | 6.0 | 0.00 | 0.00 | 0.00 | 58 | 1019.1 |
| 20260901155658 | 89 | 306 | 2.0 | 4.0 | 0.00 | 0.00 | 0.00 | 59 | 1019.2 |
| 20260901155458 | 89 | 190 | 1.0 | 5.0 | 0.00 | 0.00 | 0.00 | 59 | 1019.1 |
| 20260901155258 | 89 | 319 | 2.0 | 5.0 | 0.00 | 0.00 | 0.00 | 60 | 1019.2 |
| 20260901155200 | 89 | 181 | 1.0 | 5.0 | 0.00 | 0.00 | 0.00 | 60 | 1019.1 |
| 20260901155058 | 89 | 224 | 2.0 | 5.0 | 0.00 | 0.00 | 0.00 | 60 | 1019.1 |
| 20260901154958 | 88 | 360 | 3.0 | 9.0 | 0.00 | 0.00 | 0.00 | 60 | 1019.1 |
| 20260901154859 | 88 | 275 | 0.0 | 9.0 | 0.00 | 0.00 | 0.00 | 60 | 1019.2 |
| 20260901154758 | 88 | 339 | 1.0 | 9.0 | 0.00 | 0.00 | 0.00 | 61 | 1019.1 |
| 20260901154659 | 88 | 175 | 6.0 | 9.0 | 0.00 | 0.00 | 0.00 | 61 | 1019.1 |
| 20260901154558 | 88 | 351 | 1.0 | 9.0 | 0.00 | 0.00 | 0.00 | 61 | 1019.2 |
| 20260901154258 | 88 | 180 | 1.0 | 9.0 | 0.00 | 0.00 | 0.00 | 60 | 1019.2 |
| 20260901154159 | 88 | 206 | 3.0 | 9.0 | 0.00 | 0.00 | 0.00 | 60 | 1019.1 |
| 20260901154101 | 88 | 158 | 2.0 | 7.0 | 0.00 | 0.00 | 0.00 | 60 | 1019.2 |
| 20260901153959 | 88 | 207 | 3.0 | 7.0 | 0.00 | 0.00 | 0.00 | 60 | 1019.3 |
| 20260901153900 | 88 | 165 | 4.0 | 7.0 | 0.00 | 0.00 | 0.00 | 61 | 1019.2 |
| 20260901153800 | 88 | 260 | 0.0 | 7.0 | 0.00 | 0.00 | 0.00 | 61 | 1019.2 |
| 20260901153659 | 88 | 263 | 3.0 | 7.0 | 0.00 | 0.00 | 0.00 | 60 | 1019.4 |
| 20260901153601 | 88 | 287 | 2.0 | 8.0 | 0.00 | 0.00 | 0.00 | 61 | 1019.3 |
| 20260901153259 | 87 | 169 | 0.0 | 8.0 | 0.00 | 0.00 | 0.00 | 62 | 1019.4 |
| 20260901153158 | 87 | 283 | 1.0 | 8.0 | 0.00 | 0.00 | 0.00 | 61 | 1019.4 |
| 20260901153059 | 87 | 181 | 1.0 | 8.0 | 0.00 | 0.00 | 0.00 | 62 | 1019.4 |
| 20260901152959 | 87 | 218 | 2.0 | 8.0 | 0.00 | 0.00 | 0.00 | 61 | 1019.3 |
| 20260901152859 | 87 | 236 | 2.0 | 8.0 | 0.00 | 0.00 | 0.00 | 62 | 1019.3 |
| 20260901152758 | 87 | 211 | 2.0 | 8.0 | 0.00 | 0.00 | 0.00 | 61 | 1019.3 |
| 20260901152659 | 87 | 313 | 4.0 | 8.0 | 0.00 | 0.00 | 0.00 | 62 | 1019.3 |
| 20260901152559 | 87 | 31 | 2.0 | 8.0 | 0.00 | 0.00 | 0.00 | 62 | 1019.3 |
| 20260901152500 | 87 | 182 | 2.0 | 8.0 | 0.00 | 0.00 | 0.00 | 61 | 1019.3 |
| 20260901152358 | 87 | 67 | 1.0 | 8.0 | 0.00 | 0.00 | 0.00 | 61 | 1019.4 |
| 20260901152257 | 87 | 173 | 3.0 | 8.0 | 0.00 | 0.00 | 0.00 | 62 | 1019.4 |
| 20260901152159 | 87 | 238 | 2.0 | 8.0 | 0.00 | 0.00 | 0.00 | 62 | 1019.3 |
| 20260901152101 | 87 | 285 | 1.0 | 8.0 | 0.00 | 0.00 | 0.00 | 62 | 1019.3 |
| 20260901151959 | 87 | 183 | 3.0 | 8.0 | 0.00 | 0.00 | 0.00 | 62 | 1019.4 |
| 20260901151900 | 87 | 172 | 3.0 | 8.0 | 0.00 | 0.00 | 0.00 | 62 | 1019.3 |
| 20260901151659 | 87 | 130 | 4.0 | 7.0 | 0.00 | 0.00 | 0.00 | 61 | 1019.3 |
| 20260901151559 | 87 | 177 | 1.0 | 7.0 | 0.00 | 0.00 | 0.00 | 62 | 1019.3 |
| 20260901151458 | 87 | 176 | 2.0 | 7.0 | 0.00 | 0.00 | 0.00 | 63 | 1019.4 |
| 20260901151358 | 87 | 173 | 1.0 | 7.0 | 0.00 | 0.00 | 0.00 | 63 | 1019.3 |
| 20260901151259 | 87 | 159 | 4.0 | 7.0 | 0.00 | 0.00 | 0.00 | 63 | 1019.4 |
| 20260901151158 | 87 | 315 | 0.0 | 7.0 | 0.00 | 0.00 | 0.00 | 62 | 1019.3 |
| 20260901151103 | 87 | 294 | 1.0 | 7.0 | 0.00 | 0.00 | 0.00 | 62 | 1019.3 |
| 20260901150959 | 87 | 269 | 2.0 | 6.0 | 0.00 | 0.00 | 0.00 | 63 | 1019.3 |
| 20260901150901 | 87 | 277 | 2.0 | 6.0 | 0.00 | 0.00 | 0.00 | 63 | 1019.3 |
| 20260901150800 | 87 | 183 | 3.0 | 6.0 | 0.00 | 0.00 | 0.00 | 63 | 1019.2 |
| 20260901150701 | 86 | 288 | 2.0 | 6.0 | 0.00 | 0.00 | 0.00 | 63 | 1019.3 |
| 20260901150600 | 86 | 355 | 1.0 | 4.0 | 0.00 | 0.00 | 0.00 | 65 | 1019.2 |
| 20260901150358 | 86 | 201 | 0.0 | 7.0 | 0.00 | 0.00 | 0.00 | 65 | 1019.2 |
| 20260901150259 | 86 | 172 | 2.0 | 7.0 | 0.00 | 0.00 | 0.00 | 65 | 1019.2 |
| 20260901150159 | 86 | 184 | 1.0 | 7.0 | 0.00 | 0.00 | 0.00 | 65 | 1019.2 |
| 20260901150100 | 86 | 279 | 1.0 | 7.0 | 0.00 | 0.00 | 0.00 | 65 | 1019.3 |
| 20260901145858 | 86 | 275 | 1.0 | 7.0 | 0.00 | 0.00 | 0.00 | 64 | 1019.3 |
| 20260901145800 | 86 | 180 | 2.0 | 7.0 | 0.00 | 0.00 | 0.00 | 64 | 1019.3 |
| 20260901145700 | 86 | 173 | 3.0 | 7.0 | 0.00 | 0.00 | 0.00 | 64 | 1019.3 |
| 20260901145558 | 86 | 197 | 1.0 | 7.0 | 0.00 | 0.00 | 0.00 | 64 | 1019.3 |
| 20260901145400 | 85 | 184 | 4.0 | 6.0 | 0.00 | 0.00 | 0.00 | 64 | 1019.3 |
| 20260901145258 | 85 | 261 | 0.0 | 6.0 | 0.00 | 0.00 | 0.00 | 64 | 1019.2 |
| 20260901145159 | 85 | 196 | 3.0 | 6.0 | 0.00 | 0.00 | 0.00 | 64 | 1019.2 |
| 20260901144959 | 85 | 153 | 3.0 | 6.0 | 0.00 | 0.00 | 0.00 | 65 | 1019.2 |
| 20260901144858 | 85 | 151 | 0.0 | 6.0 | 0.00 | 0.00 | 0.00 | 64 | 1019.3 |
| 20260901144758 | 85 | 126 | 2.0 | 6.0 | 0.00 | 0.00 | 0.00 | 64 | 1019.3 |
| 20260901144601 | 85 | 145 | 1.0 | 6.0 | 0.00 | 0.00 | 0.00 | 65 | 1019.3 |
| 20260901144458 | 85 | 277 | 0.0 | 6.0 | 0.00 | 0.00 | 0.00 | 66 | 1019.3 |
| 20260901144359 | 85 | 40 | 0.0 | 6.0 | 0.00 | 0.00 | 0.00 | 65 | 1019.3 |
| 20260901144258 | 85 | 274 | 2.0 | 6.0 | 0.00 | 0.00 | 0.00 | 66 | 1019.4 |
| 20260901144158 | 85 | 192 | 4.0 | 8.0 | 0.00 | 0.00 | 0.00 | 66 | 1019.3 |
| 20260901144058 | 85 | 315 | 3.0 | 8.0 | 0.00 | 0.00 | 0.00 | 66 | 1019.2 |
| 20260901143959 | 84 | 184 | 2.0 | 8.0 | 0.00 | 0.00 | 0.00 | 66 | 1019.4 |
| 20260901143758 | 84 | 200 | 1.0 | 8.0 | 0.00 | 0.00 | 0.00 | 66 | 1019.3 |
| 20260901143658 | 84 | 188 | 0.0 | 8.0 | 0.00 | 0.00 | 0.00 | 66 | 1019.4 |
| 20260901143558 | 84 | 15 | 0.0 | 8.0 | 0.00 | 0.00 | 0.00 | 66 | 1019.3 |
| 20260901143501 | 84 | 167 | 1.0 | 8.0 | 0.00 | 0.00 | 0.00 | 65 | 1019.5 |
| 20260901143358 | 84 | 182 | 0.0 | 8.0 | 0.00 | 0.00 | 0.00 | 66 | 1019.4 |
| 20260901143259 | 84 | 207 | 6.0 | 8.0 | 0.00 | 0.00 | 0.00 | 65 | 1019.4 |
| 20260901143159 | 84 | 213 | 3.0 | 7.0 | 0.00 | 0.00 | 0.00 | 66 | 1019.4 |
| 20260901143058 | 84 | 194 | 4.0 | 7.0 | 0.00 | 0.00 | 0.00 | 66 | 1019.5 |
| 20260901142959 | 84 | 225 | 1.0 | 7.0 | 0.00 | 0.00 | 0.00 | 66 | 1019.4 |
| 20260901142859 | 84 | 244 | 3.0 | 7.0 | 0.00 | 0.00 | 0.00 | 67 | 1019.4 |
| 20260901142801 | 84 | 167 | 6.0 | 7.0 | 0.00 | 0.00 | 0.00 | 67 | 1019.4 |
| 20260901142659 | 84 | 190 | 0.0 | 7.0 | 0.00 | 0.00 | 0.00 | 67 | 1019.5 |
| 20260901142600 | 84 | 176 | 0.0 | 7.0 | 0.00 | 0.00 | 0.00 | 67 | 1019.5 |
| 20260901142459 | 84 | 165 | 1.0 | 7.0 | 0.00 | 0.00 | 0.00 | 67 | 1019.5 |
| 20260901142400 | 84 | 140 | 0.0 | 7.0 | 0.00 | 0.00 | 0.00 | 66 | 1019.5 |
| 20260901142258 | 84 | 290 | 3.0 | 7.0 | 0.00 | 0.00 | 0.00 | 67 | 1019.5 |
| 20260901142158 | 84 | 125 | 1.0 | 6.0 | 0.00 | 0.00 | 0.00 | 68 | 1019.5 |
| 20260901142058 | 84 | 186 | 0.0 | 6.0 | 0.00 | 0.00 | 0.00 | 68 | 1019.5 |
| 20260901141958 | 84 | 194 | 1.0 | 6.0 | 0.00 | 0.00 | 0.00 | 68 | 1019.5 |
| 20260901141859 | 84 | 194 | 1.0 | 6.0 | 0.00 | 0.00 | 0.00 | 68 | 1019.5 |
| 20260901141759 | 83 | 295 | 5.0 | 5.0 | 0.00 | 0.00 | 0.00 | 69 | 1019.5 |
| 20260901141658 | 83 | 227 | 0.0 | 3.0 | 0.00 | 0.00 | 0.00 | 69 | 1019.6 |
| 20260901141559 | 83 | 262 | 1.0 | 3.0 | 0.00 | 0.00 | 0.00 | 69 | 1019.5 |
| 20260901141458 | 83 | 194 | 1.0 | 3.0 | 0.00 | 0.00 | 0.00 | 69 | 1019.6 |
| 20260901141358 | 83 | 190 | 1.0 | 3.0 | 0.00 | 0.00 | 0.00 | 68 | 1019.6 |
| 20260901141300 | 83 | 212 | 1.0 | 3.0 | 0.00 | 0.00 | 0.00 | 68 | 1019.6 |
| 20260901141058 | 83 | 252 | 0.0 | 6.0 | 0.00 | 0.00 | 0.00 | 69 | 1019.6 |
| 20260901140958 | 83 | 314 | 0.0 | 6.0 | 0.00 | 0.00 | 0.00 | 69 | 1019.5 |
| 20260901140858 | 83 | 205 | 0.0 | 6.0 | 0.00 | 0.00 | 0.00 | 70 | 1019.6 |
| 20260901140759 | 83 | 179 | 0.0 | 6.0 | 0.00 | 0.00 | 0.00 | 70 | 1019.6 |
| 20260901140659 | 83 | 186 | 0.0 | 6.0 | 0.00 | 0.00 | 0.00 | 70 | 1019.5 |
| 20260901140558 | 82 | 266 | 0.0 | 6.0 | 0.00 | 0.00 | 0.00 | 69 | 1019.5 |
| 20260901140458 | 82 | 281 | 0.0 | 6.0 | 0.00 | 0.00 | 0.00 | 69 | 1019.5 |
| 20260901140358 | 82 | 222 | 0.0 | 6.0 | 0.00 | 0.00 | 0.00 | 69 | 1019.6 |
| 20260901140157 | 82 | 218 | 2.0 | 5.0 | 0.00 | 0.00 | 0.00 | 69 | 1019.5 |
| 20260901140057 | 82 | 283 | 3.0 | 5.0 | 0.00 | 0.00 | 0.00 | 69 | 1019.5 |
| 20260901140001 | 82 | 143 | 0.0 | 5.0 | 0.00 | 0.00 | 0.00 | 69 | 1019.5 |
| 20260901135859 | 82 | 200 | 1.0 | 5.0 | 0.00 | 0.00 | 0.00 | 69 | 1019.6 |
| 20260901135758 | 82 | 281 | 2.0 | 5.0 | 0.00 | 0.00 | 0.00 | 69 | 1019.5 |
| 20260901135600 | 82 | 169 | 1.0 | 4.0 | 0.00 | 0.00 | 0.00 | 69 | 1019.5 |
| 20260901135458 | 82 | 167 | 1.0 | 4.0 | 0.00 | 0.00 | 0.00 | 69 | 1019.5 |
| 20260901135257 | 82 | 89 | 0.0 | 4.0 | 0.00 | 0.00 | 0.00 | 70 | 1019.4 |
| 20260901135059 | 82 | 269 | 1.0 | 4.0 | 0.00 | 0.00 | 0.00 | 69 | 1019.3 |
| 20260901134958 | 82 | 276 | 2.0 | 5.0 | 0.00 | 0.00 | 0.00 | 70 | 1019.3 |
| 20260901134858 | 82 | 215 | 0.0 | 8.0 | 0.00 | 0.00 | 0.00 | 70 | 1019.3 |
| 20260901134800 | 82 | 152 | 1.0 | 8.0 | 0.00 | 0.00 | 0.00 | 70 | 1019.4 |
| 20260901134559 | 82 | 286 | 2.0 | 8.0 | 0.00 | 0.00 | 0.00 | 69 | 1019.3 |
| 20260901134459 | 82 | 98 | 0.0 | 8.0 | 0.00 | 0.00 | 0.00 | 70 | 1019.3 |
| 20260901134259 | 82 | 177 | 0.0 | 8.0 | 0.00 | 0.00 | 0.00 | 70 | 1019.2 |
| 20260901134158 | 82 | 181 | 0.0 | 8.0 | 0.00 | 0.00 | 0.00 | 70 | 1019.2 |
| 20260901134100 | 82 | 186 | 1.0 | 8.0 | 0.00 | 0.00 | 0.00 | 70 | 1019.1 |
| 20260901133958 | 82 | 306 | 3.0 | 6.0 | 0.00 | 0.00 | 0.00 | 70 | 1019.1 |
| 20260901133858 | 82 | 167 | 4.0 | 6.0 | 0.00 | 0.00 | 0.00 | 70 | 1019.2 |
| 20260901133800 | 81 | 211 | 5.0 | 6.0 | 0.00 | 0.00 | 0.00 | 71 | 1019.1 |
| 20260901133701 | 81 | 177 | 2.0 | 4.0 | 0.00 | 0.00 | 0.00 | 71 | 1019.2 |
| 20260901133459 | 81 | 221 | 1.0 | 4.0 | 0.00 | 0.00 | 0.00 | 71 | 1019.3 |
| 20260901133302 | 81 | 265 | 0.0 | 5.0 | 0.00 | 0.00 | 0.00 | 72 | 1019.3 |
| 20260901133159 | 81 | 137 | 1.0 | 5.0 | 0.00 | 0.00 | 0.00 | 72 | 1019.3 |
| 20260901132959 | 80 | 337 | 0.0 | 5.0 | 0.00 | 0.00 | 0.00 | 72 | 1019.3 |
| 20260901132900 | 80 | 277 | 3.0 | 5.0 | 0.00 | 0.00 | 0.00 | 73 | 1019.3 |
| 20260901132803 | 80 | 167 | 0.0 | 5.0 | 0.00 | 0.00 | 0.00 | 72 | 1019.2 |
| 20260901132658 | 80 | 202 | 2.0 | 5.0 | 0.00 | 0.00 | 0.00 | 73 | 1019.2 |
| 20260901132603 | 80 | 185 | 0.0 | 5.0 | 0.00 | 0.00 | 0.00 | 72 | 1019.2 |
| 20260901132459 | 80 | 186 | 3.0 | 5.0 | 0.00 | 0.00 | 0.00 | 72 | 1019.2 |
| 20260901132359 | 80 | 150 | 3.0 | 5.0 | 0.00 | 0.00 | 0.00 | 73 | 1019.1 |
| 20260901132200 | 80 | 157 | 1.0 | 5.0 | 0.00 | 0.00 | 0.00 | 73 | 1019.1 |
| 20260901131901 | 79 | 233 | 0.0 | 5.0 | 0.00 | 0.00 | 0.00 | 74 | 1019.0 |
| 20260901131759 | 79 | 194 | 4.0 | 5.0 | 0.00 | 0.00 | 0.00 | 74 | 1019.2 |
| 20260901131659 | 79 | 139 | 0.0 | 5.0 | 0.00 | 0.00 | 0.00 | 74 | 1019.1 |
| 20260901131559 | 79 | 234 | 1.0 | 5.0 | 0.00 | 0.00 | 0.00 | 74 | 1019.1 |
| 20260901131458 | 79 | 180 | 3.0 | 5.0 | 0.00 | 0.00 | 0.00 | 74 | 1019.1 |
| 20260901131258 | 79 | 169 | 2.0 | 5.0 | 0.00 | 0.00 | 0.00 | 75 | 1019.2 |
| 20260901131059 | 79 | 175 | 2.0 | 6.0 | 0.00 | 0.00 | 0.00 | 75 | 1019.3 |
| 20260901130959 | 79 | 173 | 3.0 | 6.0 | 0.00 | 0.00 | 0.00 | 75 | 1019.2 |
| 20260901130901 | 79 | 313 | 1.0 | 6.0 | 0.00 | 0.00 | 0.00 | 75 | 1019.3 |
| 20260901130759 | 78 | 229 | 3.0 | 6.0 | 0.00 | 0.00 | 0.00 | 75 | 1019.4 |
| 20260901130659 | 78 | 167 | 1.0 | 6.0 | 0.00 | 0.00 | 0.00 | 75 | 1019.4 |